Bel Air, Maryland - USA


Today's Data File


9/5/26
Time         Wind Dir   Wind Spd  Wind Gust     Hum In   Humidity    Temp In       Temp  Raw Barom Wind Chill  Press Alt Cloud Base   Dens Alt Temp Out R  DailyRain   24HrRain   RainRate
                    �        mph        mph          %          %         �F         �F         in         �F         ft         ft         ft      �F/hr         in         in      in/hr
12:00am            90          0          0         44         96       72.4       74.3      29.30       74.3        575        303       1714      -0.94       0.00       0.00      0.000
12:01am            92          0          0         44         96       72.4       74.3      29.30       74.3        575        303       1714      -0.92       0.00       0.00      0.000
12:02am            92          0          0         44         96       72.4       74.4      29.30       74.4        575        303       1720      -0.81       0.00       0.00      0.000
12:03am            92          0          0         44         96       72.3       74.3      29.30       74.3        575        303       1714      -0.90       0.00       0.00      0.000
12:04am            92          0          0         44         96       72.3       74.3      29.30       74.3        578        303       1717      -0.88       0.00       0.00      0.000
12:05am            92          0          0         44         96       72.3       74.2      29.30       74.2        579        302       1712      -0.97       0.00       0.00      0.000
12:06am            92          0          0         44         96       72.3       74.2      29.30       74.2        579        302       1712      -0.95       0.00       0.00      0.000
12:07am            92          0          0         44         96       72.3       74.2      29.30       74.2        580        302       1713      -0.93       0.00       0.00      0.000
12:08am            92          0          0         44         96       72.3       74.2      29.30       74.2        582        302       1716      -0.92       0.00       0.00      0.000
12:09am            92          0          0         44         96       72.3       74.2      29.30       74.2        581        302       1714      -0.90       0.00       0.00      0.000
12:10am            92          0          0         44         96       72.3       74.1      29.30       74.1        582        302       1709      -0.99       0.00       0.00      0.000
12:11am            92          0          0         44         96       72.3       74.1      29.30       74.1        583        302       1710      -0.97       0.00       0.00      0.000
12:12am            92          0          0         44         96       72.3       74.1      29.30       74.1        583        302       1710      -0.96       0.00       0.00      0.000
12:13am            92          0          0         44         96       72.3       74.1      29.30       74.1        583        302       1710      -0.94       0.00       0.00      0.000
12:14am            92          0          0         44         96       72.3       74.1      29.29       74.1        584        302       1711      -0.93       0.00       0.00      0.000
12:15am            92          0          0         44         96       72.1       74.1      29.29       74.1        584        302       1711      -0.91       0.00       0.00      0.000
12:16am            92          0          0         44         96       72.1       74.1      29.29       74.1        584        302       1711      -0.90       0.00       0.00      0.000
12:17am            92          0          0         44         96       72.1       74.1      29.29       74.1        584        302       1711      -0.88       0.00       0.00      0.000
12:18am            92          0          0         44         96       72.1       74.0      29.29       74.0        584        302       1705      -0.97       0.00       0.00      0.000
12:19am            92          0          0         44         96       72.1       74.0      29.29       74.0        584        302       1706      -0.95       0.00       0.00      0.000
12:20am            92          0          0         44         96       72.1       74.0      29.29       74.0        584        302       1706      -0.93       0.00       0.00      0.000
12:21am            92          0          0         44         96       72.1       74.0      29.29       74.0        584        302       1706      -0.92       0.00       0.00      0.000
12:22am            92          0          0         44         96       72.1       74.0      29.29       74.0        584        302       1706      -0.90       0.00       0.00      0.000
12:23am            92          0          0         44         96       72.1       74.0      29.29       74.0        584        302       1706      -0.89       0.00       0.00      0.000
12:24am            92          0          0         44         96       72.1       73.9      29.29       73.9        584        302       1700      -0.97       0.00       0.00      0.000
12:25am            92          0          0         44         96       72.1       74.0      29.29       74.0        584        302       1706      -0.86       0.00       0.00      0.000
12:26am            92          0          0         44         96       72.1       73.9      29.29       73.9        584        302       1700      -0.94       0.00       0.00      0.000
12:27am            92          0          0         44         96       72.1       73.9      29.29       73.9        584        302       1700      -0.93       0.00       0.00      0.000
12:28am            92          0          0         44         96       72.1       73.9      29.29       73.9        584        302       1700      -0.91       0.00       0.00      0.000
12:29am            92          0          0         44         96       72.3       73.9      29.29       73.9        584        302       1700      -0.90       0.00       0.00      0.000
12:30am            92          0          0         44         96       72.3       73.9      29.29       73.9        584        302       1700      -0.88       0.00       0.00      0.000
12:31am            92          0          0         44         96       72.3       73.9      29.29       73.9        584        302       1700      -0.87       0.00       0.00      0.000
12:32am            92          0          0         44         96       72.3       73.9      29.29       73.9        584        302       1700      -0.85       0.00       0.00      0.000
12:33am            92          0          0         44         96       72.3       73.9      29.29       73.9        584        302       1700      -0.84       0.00       0.00      0.000
12:34am            92          0          0         44         96       72.3       73.8      29.29       73.8        584        302       1694      -0.92       0.00       0.00      0.000
12:35am            92          0          0         44         96       72.3       73.8      29.29       73.8        584        302       1694      -0.91       0.00       0.00      0.000
12:36am            92          0          0         44         96       72.3       73.9      29.29       73.9        584        302       1700      -0.80       0.00       0.00      0.000
12:37am            92          0          0         44         96       72.3       73.8      29.29       73.8        584        302       1694      -0.88       0.00       0.00      0.000
12:38am            92          0          0         44         97       72.3       73.8      29.29       73.8        584        225       1694      -0.87       0.00       0.00      0.000
12:39am            92          0          0         44         97       72.3       73.8      29.29       73.8        584        225       1694      -0.85       0.00       0.00      0.000
12:40am            92          0          0         44         97       72.3       73.8      29.29       73.8        584        225       1694      -0.84       0.00       0.00      0.000
12:41am            92          0          0         44         97       72.3       73.9      29.29       73.9        584        225       1700      -0.73       0.00       0.00      0.000
12:42am            92          0          0         44         97       72.3       73.8      29.29       73.8        584        225       1694      -0.81       0.00       0.00      0.000
12:43am            92          0          0         44         97       72.3       73.8      29.29       73.8        584        225       1694      -0.80       0.00       0.00      0.000
12:44am            92          0          0         44         97       72.3       73.8      29.29       73.8        584        225       1694      -0.79       0.00       0.00      0.000
12:45am            92          0          0         44         97       72.3       73.8      29.29       73.8        584        225       1694      -0.77       0.00       0.00      0.000
12:46am            92          0          0         44         97       72.3       73.8      29.29       73.8        584        225       1694      -0.76       0.00       0.00      0.000
12:47am            92          0          0         44         97       72.3       73.8      29.29       73.8        584        225       1694      -0.75       0.00       0.00      0.000
12:48am            92          0          0         44         97       72.3       73.8      29.29       73.8        584        225       1694      -0.74       0.00       0.00      0.000
12:49am            92          0          0         44         97       72.3       73.8      29.29       73.8        584        225       1694      -0.72       0.00       0.00      0.000
12:50am            92          0          0         44         97       72.3       73.7      29.29       73.7        584        225       1687      -0.81       0.00       0.00      0.000
12:51am            92          0          0         44         97       72.3       73.8      29.29       73.8        584        225       1694      -0.70       0.00       0.00      0.000
12:52am            92          0          0         44         97       72.3       73.8      29.29       73.8        584        225       1694      -0.69       0.00       0.00      0.000
12:53am            92          0          0         44         97       72.3       73.8      29.29       73.8        584        225       1694      -0.68       0.00       0.00      0.000
12:54am            92          0          0         44         97       72.3       73.7      29.29       73.7        585        225       1688      -0.76       0.00       0.00      0.000
12:55am            92          0          0         44         97       72.3       73.7      29.29       73.7        584        225       1687      -0.75       0.00       0.00      0.000
12:56am            92          0          0         44         97       72.3       73.8      29.29       73.8        584        225       1694      -0.64       0.00       0.00      0.000
12:57am            92          0          0         44         97       72.3       73.7      29.29       73.7        584        225       1687      -0.73       0.00       0.00      0.000
12:58am            92          0          0         44         97       72.1       73.7      29.29       73.7        584        225       1687      -0.71       0.00       0.00      0.000
12:59am            92          0          0         44         97       72.1       73.7      29.29       73.7        584        225       1687      -0.70       0.00       0.00      0.000
1:00am             92          0          0         44         97       72.1       73.7      29.29       73.7        584        225       1687      -0.69       0.00       0.00      0.000
1:01am             92          0          0         44         97       72.1       73.7      29.29       73.7        584        225       1687      -0.68       0.00       0.00      0.000
1:02am             92          0          0         44         97       72.1       73.7      29.29       73.7        584        225       1687      -0.67       0.00       0.00      0.000
1:03am             92          0          0         44         97       72.1       73.6      29.29       73.6        584        225       1681      -0.76       0.00       0.00      0.000
1:04am             92          0          0         44         97       72.3       73.6      29.29       73.6        584        225       1681      -0.74       0.00       0.00      0.000
1:05am             92          0          0         44         97       72.1       73.7      29.29       73.7        584        225       1687      -0.63       0.00       0.00      0.000
1:06am             92          0          0         44         97       72.1       73.6      29.29       73.6        584        225       1681      -0.72       0.00       0.00      0.000
1:07am             92          0          0         44         97       72.1       73.6      29.29       73.6        585        225       1682      -0.71       0.00       0.00      0.000
1:08am             92          0          0         44         97       72.3       73.6      29.29       73.6        585        225       1682      -0.70       0.00       0.00      0.000
1:09am             92          0          0         44         97       72.3       73.5      29.29       73.5        585        225       1676      -0.79       0.00       0.00      0.000
1:10am             92          0          0         44         97       72.3       73.6      29.29       73.6        585        225       1682      -0.67       0.00       0.00      0.000
1:11am             92          0          0         44         97       72.3       73.6      29.29       73.6        586        225       1683      -0.66       0.00       0.00      0.000
1:12am             92          0          0         44         97       72.3       73.5      29.29       73.5        586        225       1677      -0.75       0.00       0.00      0.000
1:13am             92          0          0         44         97       72.3       73.5      29.29       73.5        586        225       1677      -0.74       0.00       0.00      0.000
1:14am             92          0          0         44         97       72.3       73.5      29.29       73.5        586        225       1677      -0.73       0.00       0.00      0.000
1:15am             92          0          0         44         97       72.3       73.5      29.29       73.5        587        225       1678      -0.72       0.00       0.00      0.000
1:16am             92          0          0         44         97       72.3       73.5      29.29       73.5        589        225       1680      -0.70       0.00       0.00      0.000
1:17am             92          0          0         44         97       72.3       73.5      29.29       73.5        590        225       1681      -0.69       0.00       0.00      0.000
1:18am             92          0          0         44         97       72.3       73.5      29.29       73.5        591        225       1683      -0.68       0.00       0.00      0.000
1:19am             92          0          0         44         97       72.3       73.5      29.29       73.5        591        225       1683      -0.67       0.00       0.00      0.000
1:20am             92          0          0         44         97       72.3       73.5      29.29       73.5        591        225       1683      -0.66       0.00       0.00      0.000
1:21am             92          0          0         44         97       72.3       73.4      29.29       73.4        591        225       1676      -0.74       0.00       0.00      0.000
1:22am             92          0          0         44         97       72.3       73.4      29.29       73.4        591        225       1676      -0.73       0.00       0.00      0.000
1:23am             92          0          0         44         97       72.4       73.4      29.29       73.4        590        225       1675      -0.72       0.00       0.00      0.000
1:24am             92          0          0         44         97       72.4       73.4      29.29       73.4        590        225       1675      -0.71       0.00       0.00      0.000
1:25am             92          0          0         44         97       72.4       73.3      29.29       73.3        590        225       1669      -0.80       0.00       0.00      0.000
1:26am             92          0          0         44         97       72.4       73.3      29.29       73.3        592        225       1671      -0.78       0.00       0.00      0.000
1:27am             92          0          0         44         97       72.4       73.3      29.28       73.3        593        225       1672      -0.77       0.00       0.00      0.000
1:28am             92          0          0         44         97       72.4       73.3      29.28       73.3        593        225       1672      -0.76       0.00       0.00      0.000
1:29am             92          0          0         44         97       72.4       73.3      29.28       73.3        594        225       1673      -0.74       0.00       0.00      0.000
1:30am             92          0          0         44         97       72.4       73.3      29.28       73.3        594        225       1673      -0.73       0.00       0.00      0.000
1:31am             92          0          1         44         97       72.4       73.3      29.28       73.3        594        225       1673      -0.72       0.00       0.00      0.000
1:32am             92          0          1         44         97       72.4       73.3      29.28       73.3        594        225       1673      -0.71       0.00       0.00      0.000
1:33am             92          0          1         44         97       72.4       73.3      29.29       73.3        592        225       1671      -0.70       0.00       0.00      0.000
1:34am             92          1          1         44         97       72.3       73.3      29.28       73.3        593        225       1672      -0.69       0.00       0.00      0.000
1:35am             92          0          1         44         97       72.3       73.3      29.29       73.3        591        225       1670      -0.67       0.00       0.00      0.000
1:36am             92          0          0         44         97       72.3       73.3      29.29       73.3        589        225       1668      -0.66       0.00       0.00      0.000
1:37am             92          0          0         44         97       72.3       73.3      29.29       73.3        590        225       1669      -0.65       0.00       0.00      0.000
1:38am             92          0          0         44         97       72.3       73.3      29.29       73.3        590        225       1669      -0.64       0.00       0.00      0.000
1:39am             92          0          0         44         97       72.3       73.3      29.29       73.3        589        225       1668      -0.63       0.00       0.00      0.000
1:40am             92          0          0         44         97       72.3       73.4      29.29       73.4        589        225       1674      -0.52       0.00       0.00      0.000
1:41am             92          0          0         44         97       72.3       73.4      29.29       73.4        588        225       1673      -0.51       0.00       0.00      0.000
1:42am             92          0          0         44         97       72.3       73.3      29.29       73.3        587        225       1665      -0.60       0.00       0.00      0.000
1:43am             92          0          0         44         97       72.3       73.4      29.29       73.4        589        225       1674      -0.49       0.00       0.00      0.000
1:44am             92          0          0         44         97       72.3       73.4      29.29       73.4        589        225       1674      -0.48       0.00       0.00      0.000
1:45am             92          0          0         44         97       72.3       73.4      29.29       73.4        589        225       1674      -0.48       0.00       0.00      0.000
1:46am             92          0          0         44         97       72.3       73.4      29.29       73.4        590        225       1675      -0.47       0.00       0.00      0.000
1:47am             92          0          0         44         97       72.3       73.4      29.29       73.4        592        225       1677      -0.46       0.00       0.00      0.000
1:48am             92          0          0         44         97       72.3       73.4      29.29       73.4        592        225       1677      -0.45       0.00       0.00      0.000
1:49am             92          0          0         44         97       72.3       73.4      29.28       73.4        593        225       1678      -0.45       0.00       0.00      0.000
1:50am             92          0          0         44         97       72.3       73.3      29.28       73.3        595        225       1674      -0.54       0.00       0.00      0.000
1:51am             92          0          0         44         97       72.3       73.3      29.28       73.3        595        225       1674      -0.53       0.00       0.00      0.000
1:52am             92          0          0         44         97       72.3       73.3      29.28       73.3        595        225       1674      -0.52       0.00       0.00      0.000
1:53am             92          0          0         44         97       72.3       73.3      29.28       73.3        596        225       1676      -0.51       0.00       0.00      0.000
1:54am             92          0          0         44         97       72.3       73.3      29.28       73.3        596        225       1676      -0.50       0.00       0.00      0.000
1:55am             92          0          0         44         97       72.3       73.2      29.28       73.2        596        225       1670      -0.59       0.00       0.00      0.000
1:56am             92          0          0         44         97       72.3       73.2      29.28       73.2        596        225       1670      -0.58       0.00       0.00      0.000
1:57am             92          0          0         44         97       72.3       73.2      29.28       73.2        597        225       1671      -0.57       0.00       0.00      0.000
1:58am             92          0          0         44         97       72.3       73.2      29.28       73.2        597        225       1671      -0.56       0.00       0.00      0.000
1:59am             92          0          0         44         97       72.3       73.2      29.28       73.2        597        225       1671      -0.56       0.00       0.00      0.000
2:00am             92          0          0         44         97       72.3       73.2      29.28       73.2        597        225       1671      -0.55       0.00       0.00      0.000
2:01am             92          0          0         44         97       72.3       73.2      29.28       73.2        597        225       1671      -0.54       0.00       0.00      0.000
2:02am             92          0          0         44         97       72.3       73.2      29.28       73.2        598        225       1673      -0.53       0.00       0.00      0.000
2:03am             92          0          0         44         97       72.3       73.1      29.28       73.1        598        224       1666      -0.62       0.00       0.00      0.000
2:04am             92          0          0         44         97       72.3       73.1      29.28       73.1        598        224       1666      -0.61       0.00       0.00      0.000
2:05am             92          0          0         44         96       72.3       73.1      29.28       73.1        598        301       1666      -0.60       0.00       0.00      0.000
2:06am             92          0          0         44         96       72.3       73.1      29.28       73.1        598        301       1666      -0.59       0.00       0.00      0.000
2:07am             92          0          0         44         96       72.4       73.1      29.28       73.1        598        301       1666      -0.58       0.00       0.00      0.000
2:08am             92          0          0         44         96       72.4       73.1      29.28       73.1        598        301       1666      -0.57       0.00       0.00      0.000
2:09am             92          0          0         44         96       72.4       73.1      29.28       73.1        598        301       1666      -0.56       0.00       0.00      0.000
2:10am             92          0          0         44         96       72.4       73.1      29.28       73.1        598        301       1666      -0.55       0.00       0.00      0.000
2:11am             92          0          0         44         96       72.4       73.1      29.28       73.1        598        301       1666      -0.54       0.00       0.00      0.000
2:12am             92          0          0         44         96       72.4       73.1      29.28       73.1        598        301       1666      -0.53       0.00       0.00      0.000
2:13am             92          0          0         44         96       72.4       73.1      29.28       73.1        598        301       1666      -0.53       0.00       0.00      0.000
2:14am             92          0          0         44         96       72.4       73.1      29.28       73.1        598        301       1666      -0.52       0.00       0.00      0.000
2:15am             92          0          0         44         96       72.4       73.1      29.28       73.1        598        301       1666      -0.51       0.00       0.00      0.000
2:16am             92          0          0         44         96       72.4       73.1      29.28       73.1        599        301       1667      -0.50       0.00       0.00      0.000
2:17am             92          0          0         44         96       72.4       73.1      29.28       73.1        598        301       1666      -0.49       0.00       0.00      0.000
2:18am             92          0          0         44         96       72.4       73.1      29.28       73.1        598        301       1666      -0.48       0.00       0.00      0.000
2:19am             92          0          0         44         96       72.4       73.1      29.28       73.1        598        301       1666      -0.48       0.00       0.00      0.000
2:20am             92          0          0         44         96       72.4       73.2      29.28       73.2        598        301       1673      -0.37       0.00       0.00      0.000
2:21am             92          0          0         44         96       72.4       73.2      29.28       73.2        598        301       1673      -0.36       0.00       0.00      0.000
2:22am             92          2          2         44         96       72.4       73.2      29.28       73.2        598        301       1673      -0.36       0.00       0.00      0.000
2:23am             93          0          3         44         96       72.4       73.3      29.28       73.3        598        301       1679      -0.25       0.00       0.00      0.000
2:24am             93          0          3         44         96       72.4       73.3      29.28       73.3        597        301       1678      -0.25       0.00       0.00      0.000
2:25am             93          0          3         44         96       72.4       73.3      29.28       73.3        597        301       1678      -0.24       0.00       0.00      0.000
2:26am             93          0          0         44         96       72.4       73.3      29.28       73.3        597        301       1678      -0.24       0.00       0.00      0.000
2:27am             93          0          0         44         96       72.4       73.3      29.28       73.3        597        301       1678      -0.24       0.00       0.00      0.000
2:28am             93          0          0         44         96       72.4       73.3      29.28       73.3        597        301       1678      -0.23       0.00       0.00      0.000
2:29am             93          0          0         44         96       72.4       73.3      29.28       73.3        597        301       1678      -0.23       0.00       0.00      0.000
2:30am             93          0          0         44         96       72.4       73.3      29.28       73.3        597        301       1678      -0.22       0.00       0.00      0.000
2:31am             93          0          0         44         96       72.4       73.2      29.28       73.2        598        301       1673      -0.32       0.00       0.00      0.000
2:32am             93          0          0         44         96       72.3       73.2      29.28       73.2        598        301       1673      -0.31       0.00       0.00      0.000
2:33am             93          1          2         44         96       72.3       73.2      29.28       73.2        598        301       1673      -0.31       0.00       0.00      0.000
2:34am             93          0          2         44         96       72.3       73.2      29.28       73.2        598        301       1673      -0.30       0.00       0.00      0.000
2:35am             93          1          2         44         96       72.3       73.0      29.28       73.0        598        301       1660      -0.50       0.00       0.00      0.000
2:36am             93          1          1         44         96       72.4       73.1      29.28       73.1        598        301       1666      -0.39       0.00       0.00      0.000
2:37am             93          1          2         44         96       72.3       73.1      29.28       73.1        599        301       1667      -0.38       0.00       0.00      0.000
2:38am             93          0          2         44         96       72.4       73.1      29.28       73.1        599        301       1667      -0.38       0.00       0.00      0.000
2:39am             93          0          2         44         96       72.4       73.1      29.28       73.1        599        301       1667      -0.37       0.00       0.00      0.000
2:40am             93          0          2         44         96       72.4       73.1      29.28       73.1        600        301       1669      -0.36       0.00       0.00      0.000
2:41am             93          0          0         44         96       72.4       73.1      29.28       73.1        600        301       1669      -0.36       0.00       0.00      0.000
2:42am             93          0          0         44         95       72.4       73.1      29.28       73.1        600        378       1669      -0.35       0.00       0.00      0.000
2:43am             93          0          0         44         95       72.4       73.1      29.28       73.1        601        378       1670      -0.35       0.00       0.00      0.000
2:44am             93          0          0         46         95       72.4       73.1      29.27       73.1        603        378       1672      -0.34       0.00       0.00      0.000
2:45am             93          0          0         44         95       72.4       73.2      29.27       73.2        603        378       1678      -0.24       0.00       0.00      0.000
2:46am             93          1          1         44         95       72.4       73.2      29.27       73.2        603        378       1678      -0.23       0.00       0.00      0.000
2:47am             93          0          1         44         95       72.4       73.2      29.27       73.2        603        378       1678      -0.23       0.00       0.00      0.000
2:48am             93          0          1         44         95       72.4       73.1      29.27       73.1        603        378       1672      -0.32       0.00       0.00      0.000
2:49am             93          0          1         44         95       72.4       73.2      29.27       73.2        603        378       1678      -0.22       0.00       0.00      0.000
2:50am             93          0          1         44         95       72.4       73.1      29.27       73.1        603        378       1672      -0.31       0.00       0.00      0.000
2:51am             93          0          1         44         95       72.4       73.2      29.27       73.2        603        378       1678      -0.21       0.00       0.00      0.000
2:52am             93          0          1         44         95       72.4       73.2      29.27       73.2        602        378       1677      -0.20       0.00       0.00      0.000
2:53am             93          0          2         44         95       72.4       73.1      29.27       73.1        603        378       1672      -0.30       0.00       0.00      0.000
2:54am             93          0          2         44         95       72.6       73.1      29.27       73.1        603        378       1672      -0.29       0.00       0.00      0.000
2:55am             93          0          2         44         95       72.6       73.1      29.27       73.1        602        378       1671      -0.29       0.00       0.00      0.000
2:56am             93          0          0         44         95       72.6       73.1      29.27       73.1        603        378       1672      -0.28       0.00       0.00      0.000
2:57am             93          0          0         44         95       72.6       73.1      29.27       73.1        602        378       1671      -0.28       0.00       0.00      0.000
2:58am             93          0          0         44         95       72.6       73.1      29.27       73.1        603        378       1672      -0.28       0.00       0.00      0.000
2:59am             93          0          0         44         95       72.6       73.1      29.27       73.1        603        378       1672      -0.27       0.00       0.00      0.000
3:00am             93          0          1         44         95       72.6       73.1      29.27       73.1        603        378       1672      -0.27       0.00       0.00      0.000
3:01am             93          0          1         44         95       72.6       73.1      29.27       73.1        603        378       1672      -0.26       0.00       0.00      0.000
3:02am             93          0          1         44         95       72.6       73.1      29.27       73.1        604        378       1673      -0.26       0.00       0.00      0.000
3:03am             93          0          1         44         95       72.6       73.1      29.27       73.1        604        378       1673      -0.25       0.00       0.00      0.000
3:04am             93          0          1         44         95       72.6       73.1      29.27       73.1        606        378       1675      -0.25       0.00       0.00      0.000
3:05am             93          0          1         44         95       72.4       73.1      29.27       73.1        606        378       1675      -0.24       0.00       0.00      0.000
3:06am             93          1          1         44         95       72.4       73.1      29.27       73.1        605        378       1674      -0.24       0.00       0.00      0.000
3:07am             93          0          1         44         95       72.4       73.0      29.27       73.0        606        378       1669      -0.33       0.00       0.00      0.000
3:08am             93          0          2         44         95       72.4       73.0      29.27       73.0        604        378       1667      -0.33       0.00       0.00      0.000
3:09am             93          0          2         44         95       72.4       73.0      29.27       73.0        603        378       1666      -0.32       0.00       0.00      0.000
3:10am             93          1          2         44         95       72.4       73.0      29.27       73.0        603        378       1666      -0.32       0.00       0.00      0.000
3:11am             93          0          1         44         95       72.4       73.0      29.27       73.0        603        378       1666      -0.31       0.00       0.00      0.000
3:12am             93          1          1         44         95       72.4       73.0      29.27       73.0        603        378       1666      -0.31       0.00       0.00      0.000
3:13am             93          0          1         44         95       72.4       73.0      29.27       73.0        603        378       1666      -0.30       0.00       0.00      0.000
3:14am             93          0          1         44         95       72.4       72.9      29.28       72.9        601        378       1657      -0.40       0.00       0.00      0.000
3:15am             93          1          3         44         95       72.4       72.9      29.27       72.9        602        378       1658      -0.39       0.00       0.00      0.000
3:16am             93          1          1         44         95       72.4       73.0      29.27       73.0        602        378       1664      -0.28       0.00       0.00      0.000
3:17am             93          0          1         44         95       72.4       72.9      29.27       72.9        603        378       1659      -0.38       0.00       0.00      0.000
3:18am             93          0          1         44         95       72.4       72.9      29.27       72.9        604        378       1660      -0.37       0.00       0.00      0.000
3:19am             93          0          1         44         95       72.4       72.9      29.27       72.9        604        378       1660      -0.37       0.00       0.00      0.000
3:20am             93          0          1         44         95       72.4       72.9      29.27       72.9        605        378       1662      -0.36       0.00       0.00      0.000
3:21am             93          0          0         44         95       72.4       72.9      29.27       72.9        606        378       1663      -0.35       0.00       0.00      0.000
3:22am             93          0          0         44         95       72.4       72.9      29.27       72.9        607        378       1664      -0.35       0.00       0.00      0.000
3:23am             93          0          0         44         95       72.4       72.8      29.27       72.8        607        378       1657      -0.44       0.00       0.00      0.000
3:24am             93          0          0         44         95       72.4       72.8      29.27       72.8        608        378       1659      -0.43       0.00       0.00      0.000
3:25am             93          0          1         44         95       72.4       72.8      29.27       72.8        609        378       1660      -0.42       0.00       0.00      0.000
3:26am             93          1          1         44         95       72.4       72.8      29.27       72.8        609        378       1660      -0.42       0.00       0.00      0.000
3:27am             93          0          1         44         95       72.4       72.8      29.27       72.8        609        378       1661      -0.41       0.00       0.00      0.000
3:28am             93          0          1         44         95       72.4       72.7      29.27       72.7        610        378       1656      -0.50       0.00       0.00      0.000
3:29am             93          0          1         44         95       72.4       72.7      29.27       72.7        609        378       1655      -0.50       0.00       0.00      0.000
3:30am             93          0          1         44         95       72.4       72.7      29.27       72.7        609        378       1653      -0.49       0.00       0.00      0.000
3:31am             93          0          0         44         95       72.6       72.7      29.27       72.7        607        378       1651      -0.48       0.00       0.00      0.000
3:32am             93          1          1         44         95       72.6       72.7      29.27       72.7        606        378       1650      -0.47       0.00       0.00      0.000
3:33am             93          1          2         44         95       72.6       72.7      29.27       72.7        605        378       1649      -0.46       0.00       0.00      0.000
3:34am             93          0          2         44         95       72.6       72.7      29.27       72.7        604        378       1648      -0.46       0.00       0.00      0.000
3:35am             93          1          2         44         96       72.6       72.7      29.27       72.7        604        301       1648      -0.45       0.00       0.00      0.000
3:36am             93          0          1         44         96       72.6       72.7      29.27       72.7        603        301       1647      -0.44       0.00       0.00      0.000
3:37am             93          1          1         44         96       72.6       72.7      29.27       72.7        603        301       1647      -0.43       0.00       0.00      0.000
3:38am             93          0          1         44         96       72.6       72.7      29.27       72.7        603        301       1647      -0.43       0.00       0.00      0.000
3:39am             93          0          1         44         96       72.6       72.7      29.27       72.7        603        301       1647      -0.42       0.00       0.00      0.000
3:40am             93          0          1         44         96       72.6       72.8      29.27       72.8        602        301       1652      -0.31       0.00       0.00      0.000
3:41am             93          0          0         44         96       72.6       72.8      29.27       72.8        602        301       1652      -0.31       0.00       0.00      0.000
3:42am             93          0          0         44         96       72.6       72.8      29.28       72.8        601        301       1651      -0.30       0.00       0.00      0.000
3:43am             93          0          0         44         96       72.8       72.8      29.27       72.8        602        301       1652      -0.30       0.00       0.00      0.000
3:44am             93          0          0         44         95       72.8       72.8      29.27       72.8        603        378       1653      -0.29       0.00       0.00      0.000
3:45am             93          0          0         44         95       72.8       72.8      29.27       72.8        604        378       1654      -0.29       0.00       0.00      0.000
3:46am             93          1          1         44         96       72.8       72.8      29.27       72.8        605        301       1655      -0.28       0.00       0.00      0.000
3:47am             93          1          1         44         96       72.6       72.8      29.27       72.8        606        301       1656      -0.28       0.00       0.00      0.000
3:48am             93          1          1         44         96       72.6       72.8      29.27       72.8        608        301       1659      -0.27       0.00       0.00      0.000
3:49am             93          1          1         44         96       72.6       72.9      29.27       72.9        608        301       1665      -0.17       0.00       0.00      0.000
3:50am             93          0          1         44         96       72.6       72.9      29.27       72.9        608        301       1665      -0.17       0.00       0.00      0.000
3:51am             93          1          1         44         96       72.6       72.9      29.27       72.9        609        301       1666      -0.17       0.00       0.00      0.000
3:52am             93          1          1         44         96       72.6       72.9      29.27       72.9        609        301       1666      -0.16       0.00       0.00      0.000
3:53am             93          0          1         44         96       72.6       72.9      29.27       72.9        608        301       1665      -0.16       0.00       0.00      0.000
3:54am             93          0          1         44         95       72.6       72.9      29.27       72.9        608        378       1665      -0.16       0.00       0.00      0.000
3:55am             93          0          1         44         95       72.6       72.9      29.27       72.9        609        378       1666      -0.16       0.00       0.00      0.000
3:56am             93          0          0         44         95       72.6       73.0      29.27       73.0        609        378       1674      -0.05       0.00       0.00      0.000
3:57am             93          0          0         44         95       72.6       72.9      29.27       72.9        610        378       1668      -0.15       0.00       0.00      0.000
3:58am             93          0          0         44         95       72.6       72.9      29.26       72.9        611        378       1669      -0.15       0.00       0.00      0.000
3:59am             93          0          0         44         95       72.6       72.9      29.26       72.9        611        378       1669      -0.15       0.00       0.00      0.000
4:00am             93          0          0         44         95       72.6       72.9      29.26       72.9        611        378       1669      -0.14       0.00       0.00      0.000
4:01am             93          0          0         44         95       72.6       72.8      29.26       72.8        611        378       1663      -0.24       0.00       0.00      0.000
4:02am             93          0          0         44         95       72.6       72.8      29.26       72.8        611        378       1663      -0.23       0.00       0.00      0.000
4:03am             93          0          0         44         95       72.6       72.8      29.26       72.8        611        378       1663      -0.23       0.00       0.00      0.000
4:04am             93          0          0         44         95       72.6       72.8      29.26       72.8        611        378       1663      -0.23       0.00       0.00      0.000
4:05am             93          0          0         44         95       72.6       72.8      29.26       72.8        611        378       1663      -0.22       0.00       0.00      0.000
4:06am             93          0          0         44         95       72.6       72.7      29.26       72.7        611        378       1657      -0.32       0.00       0.00      0.000
4:07am             93          0          0         44         95       72.6       72.6      29.26       72.6        611        378       1650      -0.41       0.00       0.00      0.000
4:08am             93          0          0         44         95       72.6       72.6      29.26       72.6        611        378       1650      -0.41       0.00       0.00      0.000
4:09am             93          0          0         44         95       72.6       72.6      29.26       72.6        612        378       1652      -0.40       0.00       0.00      0.000
4:10am             93          0          0         44         95       72.6       72.6      29.26       72.6        612        378       1652      -0.39       0.00       0.00      0.000
4:11am             93          0          0         44         95       72.6       72.5      29.26       72.5        612        377       1645      -0.49       0.00       0.00      0.000
4:12am             93          0          0         44         95       72.6       72.5      29.26       72.5        612        377       1645      -0.48       0.00       0.00      0.000
4:13am             93          0          0         44         95       72.6       72.5      29.26       72.5        611        377       1644      -0.47       0.00       0.00      0.000
4:14am             93          0          0         44         95       72.6       72.5      29.26       72.5        611        377       1644      -0.46       0.00       0.00      0.000
4:15am             93          0          0         44         95       72.6       72.4      29.26       72.4        612        377       1639      -0.55       0.00       0.00      0.000
4:16am             93          0          0         44         95       72.6       72.4      29.26       72.4        612        377       1639      -0.54       0.00       0.00      0.000
4:17am             93          0          0         44         95       72.6       72.3      29.26       72.3        612        377       1633      -0.64       0.00       0.00      0.000
4:18am             93          1          1         44         95       72.6       72.3      29.26       72.3        612        377       1633      -0.63       0.00       0.00      0.000
4:19am             93          1          1         44         95       72.6       72.3      29.26       72.3        612        377       1633      -0.61       0.00       0.00      0.000
4:20am             93          0          1         44         95       72.8       72.3      29.26       72.3        612        377       1633      -0.60       0.00       0.00      0.000
4:21am             93          0          0         44         95       72.8       72.2      29.26       72.2        612        377       1626      -0.69       0.00       0.00      0.000
4:22am             93          0          0         44         95       72.8       72.1      29.26       72.1        612        377       1620      -0.78       0.00       0.00      0.000
4:23am             93          0          0         44         95       72.8       72.1      29.26       72.1        612        377       1620      -0.77       0.00       0.00      0.000
4:24am             93          0          0         44         95       72.8       72.1      29.26       72.1        612        377       1620      -0.76       0.00       0.00      0.000
4:25am             93          0          0         44         96       72.8       72.1      29.26       72.1        612        300       1620      -0.74       0.00       0.00      0.000
4:26am             93          0          0         44         96       72.8       72.0      29.26       72.0        612        300       1613      -0.83       0.00       0.00      0.000
4:27am             93          0          0         44         96       72.8       72.0      29.26       72.0        612        300       1613      -0.82       0.00       0.00      0.000
4:28am             93          0          0         44         96       72.8       72.0      29.26       72.0        612        300       1613      -0.80       0.00       0.00      0.000
4:29am             93          0          0         44         96       72.8       72.0      29.26       72.0        612        300       1613      -0.79       0.00       0.00      0.000
4:30am             93          0          0         44         96       72.8       72.0      29.26       72.0        612        300       1613      -0.78       0.00       0.00      0.000
4:31am             93          0          0         44         96       72.8       71.9      29.26       71.9        612        300       1607      -0.86       0.00       0.00      0.000
4:32am             93          0          0         44         96       72.8       71.9      29.26       71.9        612        300       1607      -0.85       0.00       0.00      0.000
4:33am             93          0          0         44         96       72.8       71.9      29.26       71.9        612        300       1607      -0.83       0.00       0.00      0.000
4:34am             93          0          0         44         96       72.8       71.8      29.26       71.8        612        299       1601      -0.92       0.00       0.00      0.000
4:35am             93          0          0         44         96       72.8       71.8      29.26       71.8        613        299       1602      -0.90       0.00       0.00      0.000
4:36am             93          0          0         44         96       72.8       71.7      29.26       71.7        613        299       1596      -0.99       0.00       0.00      0.000
4:37am             93          0          0         44         96       72.8       71.7      29.26       71.7        613        299       1596      -0.97       0.00       0.00      0.000
4:38am             93          0          0         44         96       72.8       71.7      29.26       71.7        613        299       1596      -0.95       0.00       0.00      0.000
4:39am             93          0          0         44         96       72.8       71.7      29.26       71.7        613        299       1596      -0.94       0.00       0.00      0.000
4:40am             93          0          0         44         96       72.8       71.6      29.26       71.6        613        299       1589      -1.02       0.00       0.00      0.000
4:41am             93          0          0         44         96       72.8       71.6      29.26       71.6        613        299       1589      -1.00       0.00       0.00      0.000
4:42am             93          0          0         44         96       72.8       71.6      29.26       71.6        612        299       1588      -0.99       0.00       0.00      0.000
4:43am             93          0          0         44         96       72.8       71.5      29.26       71.5        612        299       1582      -1.07       0.00       0.00      0.000
4:44am             93          0          0         44         96       72.8       71.5      29.26       71.5        612        299       1582      -1.05       0.00       0.00      0.000
4:45am             93          0          0         44         96       72.8       71.5      29.26       71.5        612        299       1582      -1.03       0.00       0.00      0.000
4:46am             93          0          0         44         96       72.6       71.5      29.26       71.5        612        299       1582      -1.02       0.00       0.00      0.000
4:47am             93          0          0         44         96       72.6       71.5      29.26       71.5        612        299       1582      -1.00       0.00       0.00      0.000
4:48am             93          0          0         44         96       72.6       71.5      29.26       71.5        612        299       1582      -0.98       0.00       0.00      0.000
4:49am             93          0          0         44         97       72.6       71.4      29.26       71.4        612        223       1575      -1.07       0.00       0.00      0.000
4:50am             93          0          0         44         96       72.6       71.4      29.26       71.4        612        299       1575      -1.05       0.00       0.00      0.000
4:51am             93          0          0         44         96       72.6       71.3      29.26       71.3        612        299       1569      -1.13       0.00       0.00      0.000
4:52am             93          0          0         44         97       72.6       71.3      29.26       71.3        612        223       1569      -1.11       0.00       0.00      0.000
4:53am             93          0          0         44         97       72.6       71.3      29.26       71.3        612        223       1569      -1.09       0.00       0.00      0.000
4:54am             93          0          0         44         97       72.6       71.3      29.26       71.3        612        223       1569      -1.08       0.00       0.00      0.000
4:55am             93          0          0         44         97       72.6       71.3      29.26       71.3        612        223       1569      -1.06       0.00       0.00      0.000
4:56am             93          0          0         44         97       72.6       71.3      29.26       71.3        612        223       1569      -1.04       0.00       0.00      0.000
4:57am             93          0          0         44         97       72.6       71.2      29.26       71.2        612        223       1563      -1.12       0.00       0.00      0.000
4:58am             93          0          0         44         97       72.6       71.2      29.26       71.2        612        223       1563      -1.10       0.00       0.00      0.000
4:59am             93          0          0         44         97       72.6       71.2      29.26       71.2        612        223       1563      -1.08       0.00       0.00      0.000
5:00am             93          0          0         44         97       72.8       71.2      29.26       71.2        612        223       1563      -1.07       0.00       0.00      0.000
5:01am             93          0          0         46         97       72.8       71.2      29.26       71.2        612        223       1563      -1.05       0.00       0.00      0.000
5:02am             93          0          0         44         97       72.8       71.1      29.26       71.1        612        223       1556      -1.13       0.00       0.00      0.000
5:03am             93          0          0         44         97       72.8       71.2      29.26       71.2        612        223       1563      -1.01       0.00       0.00      0.000
5:04am             93          0          0         44         97       72.8       71.1      29.26       71.1        612        223       1556      -1.10       0.00       0.00      0.000
5:05am             93          0          0         44         97       72.8       71.1      29.26       71.1        612        223       1556      -1.08       0.00       0.00      0.000
5:06am             93          0          0         44         97       72.8       71.0      29.26       71.0        612        223       1550      -1.16       0.00       0.00      0.000
5:07am             93          0          0         44         97       72.8       71.0      29.26       71.0        612        223       1550      -1.14       0.00       0.00      0.000
5:08am             93          0          0         44         97       72.8       71.0      29.26       71.0        612        223       1550      -1.12       0.00       0.00      0.000
5:09am             93          0          0         44         97       72.8       71.0      29.26       71.0        612        223       1550      -1.10       0.00       0.00      0.000
5:10am             93          0          0         44         97       72.8       71.0      29.26       71.0        613        223       1551      -1.08       0.00       0.00      0.000
5:11am             93          0          0         44         97       72.8       70.9      29.26       70.9        613        222       1545      -1.16       0.00       0.00      0.000
5:12am             93          0          0         44         97       72.8       70.9      29.26       70.9        613        222       1545      -1.14       0.00       0.00      0.000
5:13am             93          0          0         44         97       72.8       70.9      29.26       70.9        613        222       1545      -1.12       0.00       0.00      0.000
5:14am             93          0          0         44         97       72.8       70.8      29.26       70.8        613        222       1538      -1.20       0.00       0.00      0.000
5:15am             93          0          0         44         97       72.8       70.8      29.26       70.8        613        222       1538      -1.19       0.00       0.00      0.000
5:16am             93          0          0         44         97       73.0       70.8      29.26       70.8        613        222       1538      -1.17       0.00       0.00      0.000
5:17am             93          0          0         44         97       73.0       70.8      29.26       70.8        613        222       1538      -1.15       0.00       0.00      0.000
5:18am             93          0          0         44         97       73.0       70.8      29.26       70.8        612        222       1537      -1.13       0.00       0.00      0.000
5:19am             93          0          1         44         97       73.0       70.8      29.26       70.8        612        222       1537      -1.11       0.00       0.00      0.000
5:20am             93          0          1         44         97       73.0       70.8      29.26       70.8        612        222       1537      -1.09       0.00       0.00      0.000
5:21am             93          0          0         44         97       73.0       70.7      29.26       70.7        612        222       1531      -1.17       0.00       0.00      0.000
5:22am             93          0          0         44         97       73.0       70.7      29.26       70.7        612        222       1531      -1.15       0.00       0.00      0.000
5:23am             93          0          0         44         97       73.0       70.7      29.26       70.7        611        222       1530      -1.14       0.00       0.00      0.000
5:24am             93          0          0         44         97       73.0       70.7      29.26       70.7        611        222       1530      -1.12       0.00       0.00      0.000
5:25am             93          0          0         44         98       73.0       70.7      29.27       70.7        610        147       1528      -1.10       0.00       0.00      0.000
5:26am             93          0          0         44         98       73.0       70.7      29.26       70.7        611        147       1530      -1.08       0.00       0.00      0.000
5:27am             93          0          0         44         98       72.8       70.7      29.26       70.7        611        147       1530      -1.06       0.00       0.00      0.000
5:28am             93          0          0         44         98       72.8       70.7      29.26       70.7        611        147       1530      -1.04       0.00       0.00      0.000
5:29am             93          0          0         44         98       72.8       70.7      29.26       70.7        611        147       1530      -1.03       0.00       0.00      0.000
5:30am             93          0          0         44         98       72.8       70.7      29.26       70.7        611        147       1530      -1.01       0.00       0.00      0.000
5:31am             93          0          0         44         98       72.8       70.7      29.26       70.7        611        147       1530      -0.99       0.00       0.00      0.000
5:32am             93          0          0         44         98       72.8       70.6      29.26       70.6        611        147       1523      -1.08       0.00       0.00      0.000
5:33am             93          0          0         44         98       72.8       70.6      29.26       70.6        611        147       1523      -1.06       0.00       0.00      0.000
5:34am             93          0          0         44         98       72.8       70.5      29.26       70.5        612        147       1518      -1.14       0.00       0.00      0.000
5:35am             93          0          0         44         98       72.8       70.5      29.26       70.5        612        147       1518      -1.12       0.00       0.00      0.000
5:36am             93          0          0         44         98       72.8       70.6      29.26       70.6        612        147       1524      -1.01       0.00       0.00      0.000
5:37am             93          0          0         44         98       72.8       70.5      29.26       70.5        612        147       1518      -1.09       0.00       0.00      0.000
5:38am             93          0          0         44         98       72.8       70.5      29.26       70.5        611        147       1517      -1.07       0.00       0.00      0.000
5:39am             93          0          0         44         98       72.8       70.5      29.26       70.5        611        147       1517      -1.05       0.00       0.00      0.000
5:40am             93          0          0         44         98       72.8       70.5      29.26       70.5        612        147       1518      -1.03       0.00       0.00      0.000
5:41am             93          0          0         44         98       72.8       70.5      29.26       70.5        612        147       1518      -1.02       0.00       0.00      0.000
5:42am             93          0          0         44         98       72.8       70.5      29.26       70.5        612        147       1518      -1.00       0.00       0.00      0.000
5:43am             93          0          0         44         98       72.8       70.5      29.26       70.5        612        147       1518      -0.98       0.00       0.00      0.000
5:44am             93          0          0         44         98       72.8       70.4      29.26       70.4        612        147       1512      -1.06       0.00       0.00      0.000
5:45am             93          0          0         44         98       72.8       70.4      29.26       70.4        612        147       1512      -1.05       0.00       0.00      0.000
5:46am             93          0          0         44         98       72.8       70.4      29.26       70.4        611        147       1511      -1.03       0.00       0.00      0.000
5:47am             93          0          0         44         98       72.8       70.4      29.26       70.4        611        147       1511      -1.01       0.00       0.00      0.000
5:48am             93          0          0         44         98       72.8       70.4      29.26       70.4        611        147       1511      -1.00       0.00       0.00      0.000
5:49am             93          0          0         44         98       72.8       70.4      29.26       70.4        611        147       1511      -0.98       0.00       0.00      0.000
5:50am             93          0          0         44         98       72.8       70.3      29.27       70.3        610        147       1503      -1.06       0.00       0.00      0.000
5:51am             93          0          0         44         98       72.8       70.4      29.27       70.4        610        147       1509      -0.95       0.00       0.00      0.000
5:52am             93          0          0         44         98       72.8       70.3      29.27       70.3        609        147       1502      -1.03       0.00       0.00      0.000
5:53am             93          0          0         44         98       72.8       70.3      29.27       70.3        609        147       1502      -1.01       0.00       0.00      0.000
5:54am             93          0          0         44         98       72.8       70.3      29.27       70.3        609        147       1502      -1.00       0.00       0.00      0.000
5:55am             93          0          0         44         98       73.0       70.3      29.27       70.3        609        147       1502      -0.98       0.00       0.00      0.000
5:56am             93          0          0         44         98       73.0       70.3      29.27       70.3        609        147       1501      -0.96       0.00       0.00      0.000
5:57am             93          0          0         44         98       73.0       70.3      29.27       70.3        609        147       1501      -0.95       0.00       0.00      0.000
5:58am             93          0          0         44         98       73.0       70.3      29.27       70.3        609        147       1501      -0.93       0.00       0.00      0.000
5:59am             93          1          1         44         98       73.0       70.3      29.27       70.3        608        147       1500      -0.92       0.00       0.00      0.000
6:00am             93          0          2         44         98       73.0       70.3      29.27       70.3        608        147       1500      -0.90       0.00       0.00      0.000
6:01am             93          0          1         44         98       73.0       70.3      29.27       70.3        607        147       1498      -0.89       0.00       0.00      0.000
6:02am             93          0          1         44         98       73.0       70.3      29.27       70.3        608        147       1500      -0.87       0.00       0.00      0.000
6:03am             93          0          1         44         98       73.0       70.3      29.27       70.3        608        147       1500      -0.86       0.00       0.00      0.000
6:04am             93          0          1         44         98       73.0       70.3      29.27       70.3        608        147       1500      -0.84       0.00       0.00      0.000
6:05am             93          1          1         44         98       73.0       70.3      29.27       70.3        606        147       1497      -0.83       0.00       0.00      0.000
6:06am             93          1          2         44         98       73.0       70.3      29.27       70.3        604        147       1495      -0.81       0.00       0.00      0.000
6:07am             93          2          2         44         98       73.0       70.3      29.27       70.3        602        147       1493      -0.80       0.00       0.00      0.000
6:08am             93          0          2         44         98       73.0       70.3      29.27       70.3        602        147       1493      -0.79       0.00       0.00      0.000
6:09am             93          0          2         44         98       73.0       70.3      29.27       70.3        602        147       1493      -0.78       0.00       0.00      0.000
6:10am             93          0          2         44         98       73.0       70.3      29.28       70.3        601        147       1492      -0.76       0.00       0.00      0.000
6:11am             93          0          0         44         99       73.0       70.3      29.28       70.3        600         73       1491      -0.75       0.00       0.00      0.000
6:12am             93          0          0         44         99       73.0       70.4      29.28       70.4        600         73       1497      -0.64       0.00       0.00      0.000
6:13am             93          0          0         44         99       73.0       70.3      29.28       70.3        600         73       1491      -0.73       0.00       0.00      0.000
6:14am             93          0          0         44         99       73.0       70.4      29.28       70.4        600         73       1497      -0.62       0.00       0.00      0.000
6:15am             93          0          0         44         99       73.0       70.4      29.28       70.4        599         73       1496      -0.61       0.00       0.00      0.000
6:16am             93          0          0         44         99       73.0       70.3      29.28       70.3        599         73       1489      -0.70       0.00       0.00      0.000
6:17am             93          0          0         44         99       73.0       70.4      29.28       70.4        599         73       1496      -0.59       0.00       0.00      0.000
6:18am             93          0          0         44         99       73.0       70.3      29.28       70.3        599         73       1489      -0.68       0.00       0.00      0.000
6:19am             93          0          0         44         99       73.0       70.3      29.28       70.3        599         73       1489      -0.67       0.00       0.00      0.000
6:20am             93          0          0         44         99       73.0       70.4      29.28       70.4        599         73       1496      -0.56       0.00       0.00      0.000
6:21am             93          0          0         44         99       73.0       70.3      29.28       70.3        598         73       1488      -0.65       0.00       0.00      0.000
6:22am             93          0          0         44         99       73.0       70.3      29.28       70.3        598         73       1488      -0.64       0.00       0.00      0.000
6:23am             93          0          0         44         99       73.0       70.4      29.28       70.4        598         73       1495      -0.52       0.00       0.00      0.000
6:24am             93          0          0         44         99       73.0       70.3      29.28       70.3        598         73       1488      -0.62       0.00       0.00      0.000
6:25am             93          1          1         44         99       72.8       70.3      29.28       70.3        598         73       1488      -0.61       0.00       0.00      0.000
6:26am             93          0          1         44         99       72.8       70.4      29.28       70.4        598         73       1495      -0.50       0.00       0.00      0.000
6:27am             93          0          1         44         99       72.8       70.3      29.28       70.3        597         73       1487      -0.59       0.00       0.00      0.000
6:28am             93          0          1         44         99       72.8       70.4      29.28       70.4        597         73       1493      -0.48       0.00       0.00      0.000
6:29am             93          0          1         44         99       72.8       70.4      29.28       70.4        597         73       1493      -0.47       0.00       0.00      0.000
6:30am             93          0          1         44         99       72.8       70.4      29.28       70.4        597         73       1493      -0.47       0.00       0.00      0.000
6:31am             93          0          0         44         99       72.8       70.4      29.28       70.4        597         73       1493      -0.46       0.00       0.00      0.000
6:32am             93          0          0         44         99       72.8       70.4      29.28       70.4        597         73       1493      -0.45       0.00       0.00      0.000
6:33am             93          0          0         44         99       72.8       70.5      29.28       70.5        597         73       1500      -0.34       0.00       0.00      0.000
6:34am             93          0          0         44         99       73.0       70.4      29.28       70.4        597         73       1493      -0.44       0.00       0.00      0.000
6:35am             93          0          0         44         99       73.0       70.5      29.28       70.5        596         73       1499      -0.33       0.00       0.00      0.000
6:36am             93          0          0         44         99       73.0       70.4      29.28       70.4        597         73       1493      -0.42       0.00       0.00      0.000
6:37am             93          0          0         44         99       73.0       70.5      29.28       70.5        596         73       1499      -0.32       0.00       0.00      0.000
6:38am             93          0          0         44         99       73.0       70.5      29.28       70.5        596         73       1499      -0.31       0.00       0.00      0.000
6:39am             93          0          0         44         99       73.0       70.4      29.28       70.4        596         73       1492      -0.40       0.00       0.00      0.000
6:40am             93          0          0         44         99       73.0       70.4      29.28       70.4        597         73       1493      -0.40       0.00       0.00      0.000
6:41am             93          1          1         44         99       73.0       70.5      29.28       70.5        596         73       1499      -0.29       0.00       0.00      0.000
6:42am             93          0          1         44         99       73.0       70.4      29.28       70.4        596         73       1492      -0.39       0.00       0.00      0.000
6:43am             93          0          1         44         99       73.0       70.4      29.28       70.4        596         73       1491      -0.38       0.00       0.00      0.000
6:44am             93          0          1         44         99       73.0       70.5      29.28       70.5        596         73       1498      -0.28       0.00       0.00      0.000
6:45am             93          0          1         44         99       73.0       70.5      29.28       70.5        596         73       1498      -0.27       0.00       0.00      0.000
6:46am             93          0          0         44         99       73.0       70.4      29.28       70.4        596         73       1491      -0.37       0.00       0.00      0.000
6:47am             93          0          0         44         99       73.0       70.5      29.28       70.5        596         73       1498      -0.26       0.00       0.00      0.000
6:48am             93          0          0         44         99       73.0       70.5      29.28       70.5        596         73       1498      -0.26       0.00       0.00      0.000
6:49am             93          0          0         44         99       73.0       70.5      29.28       70.5        596         73       1498      -0.25       0.00       0.00      0.000
6:50am             93          0          0         44         99       73.0       70.4      29.28       70.4        597         73       1493      -0.35       0.00       0.00      0.000
6:51am             93          0          0         44         99       73.0       70.4      29.28       70.4        596         73       1491      -0.34       0.00       0.00      0.000
6:52am             93          0          0         44         99       73.0       70.4      29.28       70.4        596         73       1491      -0.34       0.00       0.00      0.000
6:53am             93          0          0         44         99       73.1       70.4      29.28       70.4        595         73       1490      -0.33       0.00       0.00      0.000
6:54am             93          0          0         44         99       73.1       70.4      29.28       70.4        595         73       1490      -0.32       0.00       0.00      0.000
6:55am             93          0          0         44         99       73.1       70.3      29.28       70.3        594         73       1483      -0.42       0.00       0.00      0.000
6:56am             93          0          0         44         99       73.1       70.3      29.28       70.3        593         73       1481      -0.41       0.00       0.00      0.000
6:57am             93          0          0         44         99       73.1       70.3      29.29       70.3        592         73       1480      -0.41       0.00       0.00      0.000
6:58am             93          0          0         44         99       73.1       70.3      29.29       70.3        591         73       1479      -0.40       0.00       0.00      0.000
6:59am             93          0          0         44         99       73.1       70.3      29.29       70.3        590         73       1478      -0.39       0.00       0.00      0.000
7:00am             93          0          0         44         99       73.1       70.4      29.29       70.4        591         73       1486      -0.29       0.00       0.00      0.000
7:01am             93          0          0         44         99       73.1       70.4      29.29       70.4        590         73       1484      -0.28       0.00       0.00      0.000
7:02am             93          0          0         44         99       73.1       70.4      29.29       70.4        590         73       1484      -0.28       0.00       0.00      0.000
7:03am             93          0          0         44         99       73.1       70.4      29.29       70.4        590         73       1484      -0.27       0.00       0.00      0.000
7:04am             93          0          0         44         99       73.1       70.4      29.29       70.4        588         73       1482      -0.27       0.00       0.00      0.000
7:05am             93          0          0         44         99       73.1       70.4      29.29       70.4        589         73       1483      -0.26       0.00       0.00      0.000
7:06am             93          0          0         44         99       73.1       70.4      29.29       70.4        590         73       1484      -0.26       0.00       0.00      0.000
7:07am             93          0          1         44         99       73.3       70.4      29.29       70.4        590         73       1484      -0.25       0.00       0.00      0.000
7:08am             93          0          1         44         99       73.3       70.4      29.29       70.4        590         73       1484      -0.25       0.00       0.00      0.000
7:09am             93          0          1         44         99       73.3       70.4      29.29       70.4        590         73       1484      -0.25       0.00       0.00      0.000
7:10am             93          0          1         44         99       73.3       70.5      29.29       70.5        590         73       1491      -0.14       0.00       0.00      0.000
7:11am             93          0          0         44         99       73.3       70.5      29.29       70.5        589         73       1490      -0.14       0.00       0.00      0.000
7:12am             93          0          1         44         99       73.3       70.5      29.29       70.5        587         73       1487      -0.14       0.00       0.00      0.000
7:13am             93          0          1         44         99       73.3       70.5      29.29       70.5        586         73       1486      -0.14       0.00       0.00      0.000
7:14am             93          0          1         44         99       73.3       70.6      29.29       70.6        585         73       1491      -0.03       0.00       0.00      0.000
7:15am             93          0          1         44         99       73.3       70.5      29.29       70.5        585         73       1485      -0.13       0.00       0.00      0.000
7:16am             93          0          0         44         99       73.3       70.5      29.29       70.5        584         73       1484      -0.13       0.00       0.00      0.000
7:17am             93          1          1         44         99       73.3       70.5      29.29       70.5        584         73       1483      -0.13       0.00       0.00      0.000
7:18am             93          0          1         44         99       73.3       70.5      29.29       70.5        584         73       1483      -0.13       0.00       0.00      0.000
7:19am             93          0          1         44         99       73.3       70.5      29.29       70.5        584         73       1483      -0.13       0.00       0.00      0.000
7:20am             93          0          1         44         99       73.3       70.6      29.29       70.6        584         73       1489      -0.02       0.00       0.00      0.000
7:21am             93          0          0         44         99       73.3       70.6      29.29       70.6        584         73       1489      -0.02       0.00       0.00      0.000
7:22am             93          0          0         44         99       73.3       70.6      29.29       70.6        584         73       1489      -0.02       0.00       0.00      0.000
7:23am             93          1          1         44         99       73.3       70.6      29.29       70.6        584         73       1489      -0.02       0.00       0.00      0.000
7:24am             93          1          1         44         99       73.5       70.5      29.29       70.5        584         73       1483      -0.12       0.00       0.00      0.000
7:25am             93          0          1         44         99       73.5       70.5      29.29       70.5        584         73       1483      -0.12       0.00       0.00      0.000
7:26am             93          0          0         44         99       73.5       70.6      29.30       70.6        583         73       1488      -0.02       0.00       0.00      0.000
7:27am             93          1          2         44         99       73.5       70.6      29.30       70.6        582         73       1487      -0.02       0.00       0.00      0.000
7:28am             93          1          2         44         99       73.5       70.6      29.30       70.6        582         73       1487      -0.02       0.00       0.00      0.000
7:29am             93          0          2         44         99       73.5       70.7      29.30       70.7        580         73       1491       0.08       0.00       0.00      0.000
7:30am             92          1          2         44         99       73.5       70.7      29.30       70.7        579         73       1490       0.08       0.00       0.00      0.000
7:31am             92          1          2         44         99       73.5       70.7      29.30       70.7        579         73       1490       0.08       0.00       0.00      0.000
7:32am             92          0          2         44         99       73.5       70.7      29.30       70.7        580         73       1491       0.08       0.00       0.00      0.000
7:33am             93          0          2         44         99       73.5       70.7      29.30       70.7        581         73       1492       0.08       0.00       0.00      0.000
7:34am             93          0          2         44         99       73.5       70.8      29.30       70.8        583         73       1501       0.17       0.00       0.00      0.000
7:35am             93          0          2         44         99       73.5       70.8      29.30       70.8        583         73       1501       0.17       0.00       0.00      0.000
7:36am             93          0          0         44         99       73.5       70.9      29.30       70.9        583         73       1507       0.27       0.00       0.00      0.000
7:37am             93          0          0         44         99       73.5       70.8      29.30       70.8        583         73       1501       0.17       0.00       0.00      0.000
7:38am             93          0          0         44         99       73.5       70.8      29.30       70.8        582         73       1500       0.16       0.00       0.00      0.000
7:39am             93          0          0         44         99       73.5       70.9      29.30       70.9        581         73       1505       0.26       0.00       0.00      0.000
7:40am             93          0          0         44         99       73.6       70.9      29.30       70.9        581         73       1505       0.25       0.00       0.00      0.000
7:41am             93          0          0         44         99       73.6       70.9      29.30       70.9        580         73       1504       0.25       0.00       0.00      0.000
7:42am             93          0          0         44         99       73.6       70.8      29.30       70.8        580         73       1497       0.15       0.00       0.00      0.000
7:43am             93          0          0         44         98       73.6       70.8      29.30       70.8        579        147       1496       0.14       0.00       0.00      0.000
7:44am             93          0          0         44         99       73.6       70.7      29.30       70.7        579         73       1490       0.04       0.00       0.00      0.000
7:45am             93          0          0         44         99       73.6       70.7      29.30       70.7        578         73       1489       0.04       0.00       0.00      0.000
7:46am             93          0          0         44         98       73.6       70.7      29.30       70.7        578        147       1489       0.04       0.00       0.00      0.000
7:47am             93          0          1         44         98       73.6       70.5      29.30       70.5        579        147       1477      -0.16       0.00       0.00      0.000
7:48am             93          0          1         44         98       73.6       70.5      29.30       70.5        578        147       1476      -0.16       0.00       0.00      0.000
7:49am             93          0          1         44         98       73.6       70.5      29.30       70.5        577        147       1475      -0.15       0.00       0.00      0.000
7:50am             93          1          1         44         98       73.6       70.6      29.30       70.6        576        147       1480      -0.05       0.00       0.00      0.000
7:51am             93          0          1         44         98       73.8       70.5      29.30       70.5        575        147       1473      -0.15       0.00       0.00      0.000
7:52am             93          0          1         44         98       73.8       70.4      29.30       70.4        575        147       1466      -0.25       0.00       0.00      0.000
7:53am             93          0          1         44         98       73.6       70.4      29.30       70.4        577        147       1469      -0.24       0.00       0.00      0.000
7:54am             93          0          1         44         98       73.6       70.4      29.30       70.4        578        147       1470      -0.24       0.00       0.00      0.000
7:55am             93          0          1         46         97       73.6       70.3      29.30       70.3        579        222       1464      -0.33       0.00       0.00      0.000
7:56am             93          0          2         44         97       73.8       70.3      29.30       70.3        580        222       1466      -0.33       0.00       0.00      0.000
7:57am             93          0          2         44         97       73.8       70.3      29.30       70.3        580        222       1466      -0.32       0.00       0.00      0.000
7:58am             93          0          2         44         97       73.8       70.3      29.30       70.3        580        222       1466      -0.32       0.00       0.00      0.000
7:59am             93          0          2         44         97       73.8       70.4      29.30       70.4        580        222       1472      -0.21       0.00       0.00      0.000
8:00am             93          0          2         44         97       73.8       70.4      29.30       70.4        579        222       1471      -0.21       0.00       0.00      0.000
8:01am             93          0          0         45         98       73.8       70.5      29.30       70.5        578        147       1476      -0.11       0.00       0.00      0.000
8:02am             93          0          0         44         98       73.8       70.5      29.30       70.5        576        147       1474      -0.10       0.00       0.00      0.000
8:03am             93          0          0         44         98       73.8       70.5      29.30       70.5        576        147       1474      -0.10       0.00       0.00      0.000
8:04am             93          0          0         44         98       73.8       70.6      29.30       70.6        575        147       1479      -0.00       0.00       0.00      0.000
8:05am             93          0          0         44         97       73.8       70.6      29.30       70.6        576        222       1480      -0.00       0.00       0.00      0.000
8:06am             93          0          0         45         97       73.8       70.6      29.30       70.6        577        222       1481      -0.00       0.00       0.00      0.000
8:07am             93          0          0         44         97       73.8       70.7      29.30       70.7        577        222       1488       0.10       0.00       0.00      0.000
8:08am             93          0          0         45         97       73.8       70.7      29.30       70.7        575        222       1485       0.10       0.00       0.00      0.000
8:09am             93          0          0         44         97       74.0       70.7      29.30       70.7        575        222       1485       0.09       0.00       0.00      0.000
8:10am             93          0          0         44         96       74.0       70.7      29.30       70.7        574        298       1484       0.09       0.00       0.00      0.000
8:11am             93          0          0         45         96       74.0       70.7      29.31       70.7        573        298       1483       0.09       0.00       0.00      0.000
8:12am             93          0          0         44         96       74.0       70.7      29.31       70.7        573        298       1483       0.09       0.00       0.00      0.000
8:13am             93          0          0         45         96       74.0       70.7      29.30       70.7        574        298       1484       0.09       0.00       0.00      0.000
8:14am             93          0          0         44         96       74.0       70.8      29.31       70.8        572        298       1488       0.19       0.00       0.00      0.000
8:15am             93          0          0         44         96       74.0       70.8      29.31       70.8        572        298       1488       0.18       0.00       0.00      0.000
8:16am             93          0          0         45         96       74.0       70.9      29.31       70.9        572        298       1494       0.28       0.00       0.00      0.000
8:17am             93          0          0         45         96       74.0       70.9      29.31       70.9        571        298       1492       0.27       0.00       0.00      0.000
8:18am             93          0          0         44         96       74.0       71.0      29.31       71.0        571        298       1499       0.37       0.00       0.00      0.000
8:19am             93          0          0         45         95       74.0       71.0      29.31       71.0        572        375       1500       0.36       0.00       0.00      0.000
8:20am             93          0          0         44         95       74.0       71.0      29.31       71.0        572        375       1500       0.36       0.00       0.00      0.000
8:21am             93          0          0         45         95       74.0       71.1      29.31       71.1        572        375       1506       0.45       0.00       0.00      0.000
8:22am             93          0          0         45         95       74.0       71.2      29.31       71.2        572        375       1513       0.54       0.00       0.00      0.000
8:23am             93          0          0         45         95       74.0       71.2      29.31       71.2        573        375       1515       0.53       0.00       0.00      0.000
8:24am             93          0          0         44         95       74.0       71.2      29.30       71.2        575        375       1517       0.52       0.00       0.00      0.000
8:25am             93          2          3         44         94       74.0       71.4      29.30       71.4        576        453       1531       0.71       0.00       0.00      0.000
8:26am             93          2          2         45         94       74.2       71.4      29.30       71.4        577        453       1532       0.70       0.00       0.00      0.000
8:27am             93          1          2         45         94       74.2       71.4      29.30       71.4        576        453       1531       0.69       0.00       0.00      0.000
8:28am             93          1          2         45         93       74.2       71.5      29.30       71.5        578        532       1540       0.78       0.00       0.00      0.000
8:29am             93          1          2         45         93       74.2       71.5      29.30       71.5        578        532       1540       0.76       0.00       0.00      0.000
8:30am             93          0          2         45         93       74.2       71.6      29.30       71.6        580        532       1548       0.85       0.00       0.00      0.000
8:31am             93          1          1         45         93       74.2       71.6      29.30       71.6        580        532       1548       0.84       0.00       0.00      0.000
8:32am             93          0          1         45         93       74.2       71.7      29.30       71.7        580        532       1555       0.92       0.00       0.00      0.000
8:33am             93          0          1         45         93       74.2       71.8      29.30       71.8        580        532       1561       1.00       0.00       0.00      0.000
8:34am             93          0          1         45         93       74.2       71.9      29.30       71.9        580        532       1567       1.09       0.00       0.00      0.000
8:35am             93          1          2         45         93       74.2       71.9      29.30       71.9        581        532       1569       1.07       0.00       0.00      0.000
8:36am             93          0          1         45         92       74.2       71.9      29.30       71.9        581        612       1569       1.05       0.00       0.00      0.000
8:37am             93          0          1         45         92       74.2       72.0      29.30       72.0        580        612       1574       1.13       0.00       0.00      0.000
8:38am             93          0          1         45         92       74.2       72.0      29.30       72.0        579        612       1573       1.12       0.00       0.00      0.000
8:39am             92          1          3         45         92       74.3       72.0      29.30       72.0        580        612       1574       1.10       0.00       0.00      0.000
8:40am             92          2          3         45         92       74.3       72.0      29.30       72.0        579        612       1573       1.08       0.00       0.00      0.000
8:41am             92          1          2         45         91       74.3       72.0      29.30       72.0        578        692       1572       1.06       0.00       0.00      0.000
8:42am             92          2          2         45         91       74.3       72.1      29.30       72.1        577        692       1577       1.14       0.00       0.00      0.000
8:43am             92          0          2         45         91       74.3       72.1      29.30       72.1        577        692       1577       1.12       0.00       0.00      0.000
8:44am             92          1          4         45         90       74.3       72.1      29.30       72.1        577        773       1577       1.10       0.00       0.00      0.000
8:45am             92          0          4         45         90       74.3       72.2      29.30       72.2        577        773       1583       1.19       0.00       0.00      0.000
8:46am             92          1          1         45         90       74.3       72.2      29.30       72.2        578        773       1584       1.17       0.00       0.00      0.000
8:47am             92          2          2         45         90       74.3       72.3      29.30       72.3        578        773       1591       1.25       0.00       0.00      0.000
8:48am             92          0          2         45         91       74.3       72.3      29.30       72.3        577        693       1589       1.23       0.00       0.00      0.000
8:49am             92          2          2         45         91       74.3       72.4      29.30       72.4        576        693       1595       1.30       0.00       0.00      0.000
8:50am             92          1          2         45         91       74.3       72.5      29.30       72.5        576        693       1601       1.38       0.00       0.00      0.000
8:51am             92          0          1         45         91       74.3       72.6      29.30       72.6        576        693       1607       1.46       0.00       0.00      0.000
8:52am             92          1          2         45         90       74.3       72.6      29.30       72.6        576        774       1607       1.44       0.00       0.00      0.000
8:53am             92          1          2         45         90       74.5       72.6      29.30       72.6        576        774       1607       1.41       0.00       0.00      0.000
8:54am             92          1          2         45         89       74.5       72.6      29.30       72.6        577        856       1609       1.39       0.00       0.00      0.000
8:55am             92          2          2         45         89       74.5       72.5      29.30       72.5        577        856       1602       1.27       0.00       0.00      0.000
8:56am             92          0          2         45         88       74.5       72.6      29.30       72.6        576        938       1607       1.34       0.00       0.00      0.000
8:57am             92          0          2         45         88       74.5       72.6      29.30       72.6        576        938       1607       1.32       0.00       0.00      0.000
8:58am             92          1          2         45         88       74.5       72.6      29.30       72.6        574        938       1605       1.30       0.00       0.00      0.000
8:59am             92          0          3         45         88       74.5       72.6      29.31       72.6        573        938       1604       1.28       0.00       0.00      0.000
9:00am             92          0          3         45         88       74.5       72.7      29.31       72.7        572        939       1609       1.36       0.00       0.00      0.000
9:01am             92          0          0         45         87       74.5       72.7      29.31       72.7        572       1022       1608       1.33       0.00       0.00      0.000
9:02am             92          0          0         45         87       74.5       72.8      29.31       72.8        571       1022       1613       1.41       0.00       0.00      0.000
9:03am             92          4          4         45         87       74.5       72.8      29.31       72.8        572       1022       1614       1.39       0.00       0.00      0.000
9:04am             92          1          4         45         86       74.5       72.8      29.31       72.8        572       1107       1614       1.37       0.00       0.00      0.000
9:05am             92          2          4         45         87       74.5       72.9      29.31       72.9        572       1023       1622       1.44       0.00       0.00      0.000
9:06am             92          1          2         45         86       74.5       73.0      29.31       73.0        573       1108       1629       1.52       0.00       0.00      0.000
9:07am             92          2          3         45         86       74.5       73.0      29.31       73.0        572       1108       1628       1.50       0.00       0.00      0.000
9:08am             92          0          3         45         87       74.5       73.0      29.31       73.0        572       1023       1627       1.47       0.00       0.00      0.000
9:09am             92          0          3         45         86       74.7       73.1      29.31       73.1        570       1108       1631       1.55       0.00       0.00      0.000
9:10am             92          0          3         45         86       74.7       73.1      29.31       73.1        569       1108       1630       1.52       0.00       0.00      0.000
9:11am             92          0          0         45         87       74.7       73.2      29.31       73.2        569       1024       1636       1.59       0.00       0.00      0.000
9:12am             92          0          0         45         87       74.7       73.3      29.31       73.3        569       1025       1643       1.67       0.00       0.00      0.000
9:13am             92          0          0         45         87       74.7       73.4      29.31       73.4        568       1025       1648       1.74       0.00       0.00      0.000
9:14am             92          0          0         45         86       74.7       73.5      29.31       73.5        568       1110       1654       1.81       0.00       0.00      0.000
9:15am             92          0          0         45         86       74.7       73.6      29.31       73.6        568       1110       1661       1.88       0.00       0.00      0.000
9:16am             92          0          0         45         86       74.7       73.6      29.31       73.6        568       1110       1661       1.85       0.00       0.00      0.000
9:17am             92          0          0         45         85       74.7       73.7      29.31       73.7        567       1196       1666       1.92       0.00       0.00      0.000
9:18am             92          0          0         45         85       74.7       73.8      29.31       73.8        567       1197       1672       1.98       0.00       0.00      0.000
9:19am             92          0          0         45         86       74.7       73.7      29.31       73.7        567       1111       1666       1.85       0.00       0.00      0.000
9:20am             92          0          0         45         85       74.7       73.8      29.31       73.8        568       1197       1673       1.92       0.00       0.00      0.000
9:21am             92          0          0         45         85       74.7       73.8      29.31       73.8        568       1197       1673       1.89       0.00       0.00      0.000
9:22am             92          0          0         45         85       74.7       73.8      29.31       73.8        567       1197       1672       1.86       0.00       0.00      0.000
9:23am             92          0          0         45         86       74.7       73.8      29.31       73.8        566       1111       1671       1.83       0.00       0.00      0.000
9:24am             92          0          0         45         86       74.7       73.9      29.31       73.9        565       1112       1676       1.89       0.00       0.00      0.000
9:25am             92          0          0         45         87       74.9       73.9      29.32       73.9        564       1027       1675       1.87       0.00       0.00      0.000
9:26am             92          0          0         45         87       74.9       73.9      29.32       73.9        561       1027       1672       1.83       0.00       0.00      0.000
9:27am             92          0          0         45         86       74.9       73.9      29.32       73.9        561       1112       1672       1.80       0.00       0.00      0.000
9:28am             92          0          0         45         85       74.9       73.9      29.32       73.9        563       1197       1674       1.77       0.00       0.00      0.000
9:29am             92          0          0         45         85       74.9       73.8      29.32       73.8        563       1197       1668       1.64       0.00       0.00      0.000
9:30am             92          0          0         45         84       74.9       73.8      29.31       73.8        566       1283       1671       1.62       0.00       0.00      0.000
9:31am             92          0          0         45         85       74.9       73.9      29.31       73.9        566       1197       1677       1.69       0.00       0.00      0.000
9:32am             92          0          0         45         85       74.9       73.9      29.31       73.9        566       1197       1677       1.66       0.00       0.00      0.000
9:33am             92          0          0         45         84       74.9       73.9      29.31       73.9        566       1284       1677       1.63       0.00       0.00      0.000
9:34am             92          0          0         45         84       74.9       73.9      29.31       73.9        567       1284       1678       1.61       0.00       0.00      0.000
9:35am             92          0          0         45         84       74.9       73.9      29.31       73.9        568       1284       1680       1.58       0.00       0.00      0.000
9:36am             92          0          0         45         84       74.9       74.0      29.31       74.0        568       1284       1686       1.65       0.00       0.00      0.000
9:37am             92          0          0         45         84       74.7       74.0      29.31       74.0        568       1284       1686       1.63       0.00       0.00      0.000
9:38am             92          0          0         45         84       74.7       74.0      29.31       74.0        569       1284       1687       1.60       0.00       0.00      0.000
9:39am             92          0          0         45         85       74.7       74.1      29.31       74.1        569       1198       1693       1.67       0.00       0.00      0.000
9:40am             92          0          0         45         85       74.7       74.1      29.31       74.1        569       1198       1693       1.65       0.00       0.00      0.000
9:41am             92          0          0         45         85       74.7       74.1      29.31       74.1        569       1198       1693       1.62       0.00       0.00      0.000
9:42am             92          0          0         45         84       74.7       74.2      29.31       74.2        569       1285       1700       1.69       0.00       0.00      0.000
9:43am             92          0          0         45         84       74.7       74.2      29.31       74.2        569       1285       1700       1.66       0.00       0.00      0.000
9:44am             92          0          0         45         85       74.7       74.3      29.31       74.3        569       1199       1706       1.73       0.00       0.00      0.000
9:45am             92          0          0         45         85       74.7       74.4      29.31       74.4        569       1200       1712       1.80       0.00       0.00      0.000
9:46am             92          0          0         45         85       74.7       74.5      29.31       74.5        569       1200       1719       1.87       0.00       0.00      0.000
9:47am             92          0          0         45         86       74.7       74.5      29.31       74.5        569       1115       1719       1.84       0.00       0.00      0.000
9:48am             92          0          0         45         86       74.7       74.7      29.31       74.7        570       1115       1732       2.01       0.00       0.00      0.000
9:49am             92          0          0         45         86       74.7       74.7      29.31       74.7        569       1115       1731       1.98       0.00       0.00      0.000
9:50am             92          0          2         45         84       74.7       74.7      29.31       74.7        570       1288       1732       1.94       0.00       0.00      0.000
9:51am             92          0          0         45         83       74.7       74.6      29.31       74.6        570       1375       1726       1.81       0.00       0.00      0.000
9:52am             92          1          1         45         84       74.7       74.8      29.31       74.8        569       1288       1738       1.98       0.00       0.00      0.000
9:53am             92          1          2         45         84       74.7       74.7      29.31       74.7        569       1288       1731       1.85       0.00       0.00      0.000
9:54am             92          2          2         45         82       74.7       74.6      29.31       74.6        568       1463       1724       1.72       0.00       0.00      0.000
9:55am             92          2          2         45         82       74.7       74.7      29.31       74.7        568       1464       1730       1.79       0.00       0.00      0.000
9:56am            351          1          4         45         81       74.7       74.7      29.31       74.7        567       1553       1729       1.76       0.00       0.00      0.000
9:57am            351          1          4         45         81       74.7       74.8      29.31       74.8        568       1554       1736       1.83       0.00       0.00      0.000
9:58am            351          2          4         45         81       74.7       74.7      29.31       74.7        568       1553       1730       1.70       0.00       0.00      0.000
9:59am            351          0          4         45         80       74.7       74.6      29.31       74.6        568       1643       1724       1.58       0.00       0.00      0.000
10:00am           351          0          4         45         80       74.7       74.6      29.31       74.6        566       1643       1722       1.55       0.00       0.00      0.000
10:01am           351          2          2         45         80       74.7       74.6      29.31       74.6        566       1643       1722       1.52       0.00       0.00      0.000
10:02am           351          0          2         45         79       74.7       74.6      29.31       74.6        565       1734       1720       1.50       0.00       0.00      0.000
10:03am           352          2          3         45         79       74.9       74.6      29.31       74.6        565       1734       1720       1.48       0.00       0.00      0.000
10:04am           352          0          3         45         79       74.9       74.5      29.31       74.5        566       1734       1715       1.35       0.00       0.00      0.000
10:05am            97          3          4         45         79       74.9       74.6      29.31       74.6        565       1734       1720       1.43       0.00       0.00      0.000
10:06am            97          0          3         45         80       74.9       74.6      29.31       74.6        566       1643       1722       1.41       0.00       0.00      0.000
10:07am            97          0          3         45         81       74.9       74.6      29.31       74.6        566       1553       1722       1.38       0.00       0.00      0.000
10:08am            97          1          3         45         81       74.9       74.7      29.31       74.7        566       1553       1728       1.46       0.00       0.00      0.000
10:09am            97          3          3         45         80       74.9       74.6      29.31       74.6        565       1643       1720       1.34       0.00       0.00      0.000
10:10am            19          1          4         45         79       74.9       74.6      29.31       74.6        566       1734       1722       1.32       0.00       0.00      0.000
10:11am            19          2          2         45         80       74.9       74.7      29.31       74.7        565       1644       1727       1.39       0.00       0.00      0.000
10:12am            19          1          2         45         79       74.9       74.7      29.31       74.7        566       1735       1728       1.37       0.00       0.00      0.000
10:13am            19          0          2         45         79       74.9       74.7      29.31       74.7        566       1735       1728       1.35       0.00       0.00      0.000
10:14am            17          2          4         45         79       74.9       74.7      29.31       74.7        566       1735       1728       1.33       0.00       0.00      0.000
10:15am            16          0          4         45         80       74.9       74.8      29.31       74.8        567       1644       1735       1.40       0.00       0.00      0.000
10:16am            16          0          0         45         80       74.9       74.8      29.31       74.8        567       1644       1735       1.38       0.00       0.00      0.000
10:17am            16          0          0         45         80       74.9       74.8      29.31       74.8        567       1644       1735       1.36       0.00       0.00      0.000
10:18am            16          0          0         45         80       74.9       74.8      29.31       74.8        565       1644       1733       1.34       0.00       0.00      0.000
10:19am            16          0          0         45         80       74.9       74.8      29.31       74.8        565       1644       1733       1.31       0.00       0.00      0.000
10:20am           146          1          3         45         81       74.9       74.8      29.31       74.8        565       1554       1733       1.29       0.00       0.00      0.000
10:21am           326          2          3         45         80       74.9       74.8      29.31       74.8        566       1644       1734       1.27       0.00       0.00      0.000
10:22am           326          1          3         45         81       74.9       74.8      29.31       74.8        566       1554       1734       1.25       0.00       0.00      0.000
10:23am           310          0          3         45         80       74.9       74.8      29.31       74.8        567       1644       1735       1.23       0.00       0.00      0.000
10:24am           310          0          3         46         80       74.9       74.8      29.31       74.8        567       1644       1735       1.21       0.00       0.00      0.000
10:25am           310          1          3         45         80       75.0       74.8      29.31       74.8        566       1644       1734       1.19       0.00       0.00      0.000
10:26am           310          1          2         45         80       75.0       74.8      29.31       74.8        566       1644       1734       1.17       0.00       0.00      0.000
10:27am           310          1          2         45         80       75.0       74.8      29.32       74.8        564       1644       1732       1.15       0.00       0.00      0.000
10:28am           310          2          2         45         80       75.0       74.8      29.32       74.8        564       1644       1732       1.13       0.00       0.00      0.000
10:29am           310          0          2         45         80       75.0       74.8      29.32       74.8        563       1644       1731       1.11       0.00       0.00      0.000
10:30am           310          2          2         45         79       75.0       74.8      29.32       74.8        562       1736       1730       1.09       0.00       0.00      0.000
10:31am           310          1          2         45         79       75.0       74.8      29.32       74.8        563       1736       1731       1.08       0.00       0.00      0.000
10:32am           335          2          3         45         79       75.0       74.7      29.32       74.7        563       1735       1724       0.96       0.00       0.00      0.000
10:33am           335          2          3         45         80       75.0       74.7      29.32       74.7        564       1644       1726       0.95       0.00       0.00      0.000
10:34am           335          1          3         45         79       75.0       74.7      29.31       74.7        565       1735       1727       0.93       0.00       0.00      0.000
10:35am           335          2          3         45         79       75.0       74.7      29.31       74.7        565       1735       1727       0.91       0.00       0.00      0.000
10:36am           335          0          2         45         79       75.0       74.6      29.31       74.6        565       1734       1720       0.80       0.00       0.00      0.000
10:37am           214          1          3         45         80       75.0       74.7      29.32       74.7        564       1644       1726       0.88       0.00       0.00      0.000
10:38am           216          0          3         45         80       75.0       74.8      29.32       74.8        564       1644       1732       0.97       0.00       0.00      0.000
10:39am           216          0          3         45         80       75.0       74.8      29.32       74.8        564       1644       1732       0.95       0.00       0.00      0.000
10:40am           216          0          3         45         81       75.0       74.9      29.31       74.9        565       1554       1739       1.04       0.00       0.00      0.000
10:41am           176          2          2         45         79       75.0       74.9      29.31       74.9        565       1736       1739       1.02       0.00       0.00      0.000
10:42am           171          0          3         45         79       75.0       75.0      29.32       75.0        563       1737       1743       1.10       0.00       0.00      0.000
10:43am           171          0          3         45         80       74.9       75.1      29.32       75.1        564       1646       1751       1.18       0.00       0.00      0.000
10:44am           171          0          3         45         79       74.9       75.2      29.32       75.2        563       1739       1756       1.26       0.00       0.00      0.000
10:45am            10          2          3         45         80       74.9       75.3      29.32       75.3        562       1648       1761       1.34       0.00       0.00      0.000
10:46am            10          0          3         45         78       74.9       75.3      29.32       75.3        560       1832       1759       1.32       0.00       0.00      0.000
10:47am             9          0          3         45         79       74.9       75.4      29.32       75.4        556       1740       1760       1.40       0.00       0.00      0.000
10:48am             6          0          3         45         78       74.9       75.5      29.32       75.5        555       1833       1765       1.47       0.00       0.00      0.000
10:49am             6          0          3         45         79       74.9       75.5      29.33       75.5        554       1741       1764       1.45       0.00       0.00      0.000
10:50am            79          0          3         45         79       74.9       75.6      29.33       75.6        554       1741       1770       1.52       0.00       0.00      0.000
10:51am            79          0          0         45         78       74.9       75.6      29.33       75.6        554       1834       1770       1.50       0.00       0.00      0.000
10:52am            79          0          0         45         77       74.9       75.6      29.33       75.6        554       1928       1770       1.47       0.00       0.00      0.000
10:53am            79          0          0         45         78       74.9       75.7      29.33       75.7        554       1835       1776       1.55       0.00       0.00      0.000
10:54am            79          0          0         45         79       74.9       75.8      29.33       75.8        554       1743       1783       1.62       0.00       0.00      0.000
10:55am            79          0          0         45         80       74.9       75.8      29.33       75.8        554       1651       1783       1.60       0.00       0.00      0.000
10:56am            79          0          0         45         79       74.9       75.9      29.33       75.9        554       1744       1789       1.67       0.00       0.00      0.000
10:57am            79          0          0         45         80       74.9       75.9      29.33       75.9        554       1652       1789       1.64       0.00       0.00      0.000
10:58am            79          0          0         45         79       74.9       75.9      29.33       75.9        554       1744       1789       1.62       0.00       0.00      0.000
10:59am            79          0          0         45         79       74.9       75.9      29.33       75.9        554       1744       1789       1.59       0.00       0.00      0.000
11:00am           310          0          0         45         78       74.9       75.8      29.32       75.8        555       1836       1784       1.46       0.00       0.00      0.000
11:01am           310          0          0         45         77       74.9       75.9      29.33       75.9        554       1930       1789       1.54       0.00       0.00      0.000
11:02am            33          0          0         45         76       74.9       75.8      29.33       75.8        554       2024       1783       1.41       0.00       0.00      0.000
11:03am            18          0          0         45         76       74.9       75.9      29.33       75.9        554       2025       1789       1.49       0.00       0.00      0.000
11:04am            18          0          0         45         76       74.9       75.9      29.33       75.9        554       2025       1789       1.47       0.00       0.00      0.000
11:05am            35          0          0         45         76       74.9       75.9      29.33       75.9        554       2025       1789       1.44       0.00       0.00      0.000
11:06am            35          0          0         45         75       74.9       76.0      29.33       76.0        554       2122       1795       1.52       0.00       0.00      0.000
11:07am            35          0          0         45         76       74.9       76.0      29.33       76.0        554       2026       1795       1.49       0.00       0.00      0.000
11:08am            37          0          0         45         75       74.9       76.0      29.33       76.0        554       2122       1795       1.47       0.00       0.00      0.000
11:09am           318          0          0         45         74       74.9       76.1      29.32       76.1        555       2220       1803       1.54       0.00       0.00      0.000
11:10am           264          0          0         45         75       74.9       76.2      29.33       76.2        554       2124       1808       1.61       0.00       0.00      0.000
11:11am           264          0          0         45         76       74.9       76.2      29.33       76.2        554       2028       1808       1.59       0.00       0.00      0.000
11:12am           264          0          0         45         76       74.9       76.3      29.33       76.3        554       2029       1814       1.66       0.00       0.00      0.000
11:13am           264          0          0         45         76       74.9       76.2      29.33       76.2        553       2028       1807       1.53       0.00       0.00      0.000
11:14am           264          0          0         45         76       74.9       76.3      29.33       76.3        553       2029       1813       1.61       0.00       0.00      0.000
11:15am           264          0          0         45         75       74.9       76.3      29.33       76.3        553       2125       1813       1.58       0.00       0.00      0.000
11:16am           264          0          0         45         76       74.9       76.4      29.33       76.4        553       2030       1819       1.65       0.00       0.00      0.000
11:17am           264          0          0         45         74       74.9       76.5      29.33       76.5        553       2224       1826       1.73       0.00       0.00      0.000
11:18am           264          0          0         45         75       74.9       76.6      29.33       76.6        553       2128       1832       1.80       0.00       0.00      0.000
11:19am           208          0          0         45         74       74.9       76.7      29.33       76.7        553       2226       1838       1.87       0.00       0.00      0.000
11:20am            36          0          0         45         73       74.9       76.7      29.33       76.7        553       2325       1838       1.84       0.00       0.00      0.000
11:21am            79          0          0         45         74       75.0       76.9      29.33       76.9        553       2228       1851       2.00       0.00       0.00      0.000
11:22am            79          0          0         45         73       75.0       76.9      29.33       76.9        553       2327       1851       1.97       0.00       0.00      0.000
11:23am            79          0          0         45         75       75.0       76.9      29.33       76.9        553       2130       1851       1.94       0.00       0.00      0.000
11:24am            83          0          0         45         73       75.0       77.0      29.33       77.0        553       2328       1857       2.00       0.00       0.00      0.000
11:25am            83          0          0         45         72       75.0       77.0      29.33       77.0        553       2428       1857       1.97       0.00       0.00      0.000
11:26am            83          0          0         45         72       75.0       76.9      29.33       76.9        553       2427       1851       1.84       0.00       0.00      0.000
11:27am            83          0          0         45         73       74.9       76.9      29.33       76.9        553       2327       1851       1.81       0.00       0.00      0.000
11:28am            83          0          0         45         73       74.9       76.9      29.33       76.9        553       2327       1851       1.78       0.00       0.00      0.000
11:29am            83          0          0         45         74       74.9       76.9      29.33       76.9        553       2228       1851       1.75       0.00       0.00      0.000
11:30am            83          0          0         45         73       74.9       76.9      29.33       76.9        553       2327       1851       1.72       0.00       0.00      0.000
11:31am            83          0          0         45         74       74.9       77.0      29.33       77.0        552       2229       1856       1.79       0.00       0.00      0.000
11:32am            83          0          0         45         74       74.9       77.1      29.33       77.1        553       2230       1863       1.86       0.00       0.00      0.000
11:33am            83          0          0         45         75       74.9       77.2      29.33       77.2        553       2133       1870       1.93       0.00       0.00      0.000
11:34am            83          0          0         45         73       74.9       77.2      29.33       77.2        553       2329       1870       1.90       0.00       0.00      0.000
11:35am            83          0          0         45         73       74.9       77.2      29.33       77.2        552       2329       1868       1.87       0.00       0.00      0.000
11:36am            83          0          0         45         73       74.9       77.3      29.33       77.3        552       2330       1875       1.94       0.00       0.00      0.000
11:37am            83          0          0         45         73       74.9       77.2      29.33       77.2        553       2329       1870       1.81       0.00       0.00      0.000
11:38am            83          0          0         45         74       74.9       77.3      29.33       77.3        553       2231       1876       1.87       0.00       0.00      0.000
11:39am            83          0          0         45         74       74.7       77.3      29.33       77.3        553       2231       1876       1.84       0.00       0.00      0.000
11:40am            83          0          0         45         75       74.7       77.4      29.33       77.4        553       2135       1882       1.91       0.00       0.00      0.000
11:41am            83          0          0         45         75       74.7       77.4      29.33       77.4        553       2135       1882       1.88       0.00       0.00      0.000
11:42am            83          0          0         45         76       74.7       77.5      29.33       77.5        553       2039       1888       1.95       0.00       0.00      0.000
11:43am            83          0          0         45         76       74.7       77.5      29.32       77.5        555       2039       1891       1.92       0.00       0.00      0.000
11:44am            83          0          0         45         73       74.7       77.5      29.32       77.5        555       2332       1891       1.88       0.00       0.00      0.000
11:45am            83          0          0         45         74       74.7       77.5      29.32       77.5        555       2233       1891       1.85       0.00       0.00      0.000
11:46am            83          0          0         45         73       74.7       77.5      29.32       77.5        556       2332       1892       1.82       0.00       0.00      0.000
11:47am            83          0          0         45         73       74.7       77.6      29.33       77.6        554       2333       1896       1.89       0.00       0.00      0.000
11:48am            83          0          0         45         73       74.7       77.7      29.33       77.7        553       2334       1901       1.96       0.00       0.00      0.000
11:49am            83          0          0         45         73       74.7       77.7      29.33       77.7        553       2334       1901       1.93       0.00       0.00      0.000
11:50am            83          0          0         45         74       74.7       77.7      29.33       77.7        553       2235       1901       1.90       0.00       0.00      0.000
11:51am            83          0          0         45         73       74.7       77.8      29.33       77.8        553       2335       1907       1.96       0.00       0.00      0.000
11:52am            83          0          0         45         72       74.7       77.8      29.33       77.8        554       2436       1908       1.93       0.00       0.00      0.000
11:53am            83          0          0         45         72       74.7       77.8      29.33       77.8        554       2436       1908       1.90       0.00       0.00      0.000
11:54am            83          0          0         45         73       74.7       77.9      29.33       77.9        554       2336       1915       1.97       0.00       0.00      0.000
11:55am            83          0          0         45         74       74.7       78.0      29.32       78.0        556       2238       1923       2.03       0.00       0.00      0.000
11:56am            83          0          0         45         71       74.7       77.9      29.33       77.9        554       2538       1915       1.90       0.00       0.00      0.000
11:57am            83          0          0         45         73       74.7       77.9      29.32       77.9        555       2336       1916       1.87       0.00       0.00      0.000
11:58am            83          0          0         45         73       74.7       77.8      29.32       77.8        555       2335       1909       1.74       0.00       0.00      0.000
11:59am            83          0          2         45         73       74.7       77.8      29.33       77.8        554       2335       1908       1.71       0.00       0.00      0.000
12:00pm            83          0          2         45         73       74.7       77.8      29.32       77.8        555       2335       1909       1.68       0.00       0.00      0.000
12:01pm            83          0          1         45         73       74.7       77.8      29.32       77.8        555       2335       1909       1.65       0.00       0.00      0.000
12:02pm            83          1          1         45         73       74.7       77.8      29.33       77.8        554       2335       1908       1.63       0.00       0.00      0.000
12:03pm            83          0          3         45         71       74.7       77.8      29.33       77.8        554       2537       1908       1.60       0.00       0.00      0.000
12:04pm            83          0          3         45         71       74.7       77.8      29.33       77.8        553       2537       1907       1.57       0.00       0.00      0.000
12:05pm            83          0          3         45         71       74.7       77.8      29.33       77.8        553       2537       1907       1.55       0.00       0.00      0.000
12:06pm            83          2          2         45         72       74.7       77.8      29.33       77.8        554       2436       1908       1.52       0.00       0.00      0.000
12:07pm            83          1          3         45         70       74.7       77.8      29.33       77.8        554       2640       1908       1.50       0.00       0.00      0.000
12:08pm            83          0          3         45         72       74.5       77.8      29.32       77.8        555       2436       1909       1.47       0.00       0.00      0.000
12:09pm            83          0          3         45         73       74.5       77.8      29.32       77.8        555       2335       1909       1.45       0.00       0.00      0.000
12:10pm            83          1          3         45         71       74.5       77.8      29.32       77.8        555       2537       1909       1.42       0.00       0.00      0.000
12:11pm            83          0          1         45         72       74.5       77.8      29.32       77.8        555       2436       1909       1.40       0.00       0.00      0.000
12:12pm            83          2          3         45         72       74.5       77.9      29.32       77.9        555       2437       1916       1.47       0.00       0.00      0.000
12:13pm            83          2          3         45         72       74.5       77.9      29.32       77.9        556       2437       1917       1.45       0.00       0.00      0.000
12:14pm            83          3          3         45         71       74.5       77.8      29.32       77.8        556       2537       1911       1.33       0.00       0.00      0.000
12:15pm            83          3          3         45         69       74.5       77.8      29.32       77.8        557       2744       1912       1.31       0.00       0.00      0.000
12:16pm            83          0          3         45         69       74.5       77.7      29.32       77.7        557       2743       1905       1.18       0.00       0.00      0.000
12:17pm            83          2          3         45         71       74.3       77.8      29.32       77.8        557       2537       1912       1.26       0.00       0.00      0.000
12:18pm            83          1          3         45         72       74.3       77.7      29.32       77.7        559       2435       1908       1.15       0.00       0.00      0.000
12:19pm            83          2          3         45         71       74.3       77.8      29.32       77.8        559       2537       1914       1.23       0.00       0.00      0.000
12:20pm            83          0          3         45         71       74.3       77.8      29.32       77.8        560       2537       1916       1.21       0.00       0.00      0.000
12:21pm            83          1          2         45         71       74.3       77.9      29.32       77.9        561       2538       1924       1.29       0.00       0.00      0.000
12:22pm            83          0          2         46         71       74.3       77.9      29.32       77.9        562       2538       1925       1.26       0.00       0.00      0.000
12:23pm            83          0          2         45         71       74.2       77.9      29.32       77.9        562       2538       1925       1.24       0.00       0.00      0.000
12:24pm            83          0          2         45         72       74.2       77.9      29.32       77.9        561       2437       1924       1.22       0.00       0.00      0.000
12:25pm            83          3          3         45         73       74.2       78.0      29.32       78.0        560       2337       1928       1.30       0.00       0.00      0.000
12:26pm            83          1          3         45         71       74.2       78.1      29.32       78.1        558       2540       1932       1.38       0.00       0.00      0.000
12:27pm            83          0          3         45         70       74.2       78.2      29.32       78.2        559       2644       1939       1.45       0.00       0.00      0.000
12:28pm            83          0          3         45         71       74.2       78.3      29.32       78.3        557       2542       1943       1.53       0.00       0.00      0.000
12:29pm            83          0          3         45         72       74.2       78.4      29.32       78.4        559       2442       1952       1.60       0.00       0.00      0.000
12:30pm            83          3          3         45         73       74.2       78.4      29.32       78.4        559       2341       1952       1.57       0.00       0.00      0.000
12:31pm            83          3          3         45         71       74.2       78.5      29.32       78.5        560       2544       1959       1.65       0.00       0.00      0.000
12:32pm            83          1          3         45         73       74.2       78.5      29.32       78.5        560       2342       1959       1.62       0.00       0.00      0.000
12:33pm            83          0          3         45         74       74.2       78.5      29.32       78.5        561       2243       1961       1.59       0.00       0.00      0.000
12:34pm            83          2          3         45         73       74.2       78.4      29.32       78.4        561       2341       1955       1.47       0.00       0.00      0.000
12:35pm            83          1          3         45         71       74.2       78.4      29.32       78.4        563       2543       1957       1.44       0.00       0.00      0.000
12:36pm           300          2          5         45         72       74.2       78.3      29.32       78.3        563       2441       1951       1.32       0.00       0.00      0.000
12:37pm           300          0          5         45         73       74.2       78.3      29.32       78.3        564       2340       1952       1.30       0.00       0.00      0.000
12:38pm           236          2          5         45         72       74.3       78.3      29.32       78.3        563       2441       1951       1.28       0.00       0.00      0.000
12:39pm           295          1          5         45         73       74.3       78.2      29.32       78.2        564       2339       1946       1.16       0.00       0.00      0.000
12:40pm           295          0          5         45         73       74.3       78.2      29.32       78.2        564       2339       1946       1.14       0.00       0.00      0.000
12:41pm           295          1          2         47         75       74.3       78.4      29.32       78.4        564       2143       1958       1.32       0.00       0.00      0.000
12:42pm           343          2          4         45         73       74.3       78.4      29.32       78.4        564       2341       1958       1.30       0.00       0.00      0.000
12:43pm           338          1          5         45         70       74.3       78.3      29.31       78.3        565       2645       1953       1.18       0.00       0.00      0.000
12:44pm           345          3          5         45         72       74.3       78.4      29.31       78.4        566       2442       1961       1.26       0.00       0.00      0.000
12:45pm            35          2          5         45         72       74.3       78.5      29.31       78.5        566       2443       1967       1.33       0.00       0.00      0.000
12:46pm           322          3          3         45         72       74.3       78.5      29.31       78.5        567       2443       1968       1.31       0.00       0.00      0.000
12:47pm            19          3          5         45         69       74.3       78.5      29.31       78.5        567       2752       1968       1.29       0.00       0.00      0.000
12:48pm           351          2          5         45         70       74.3       78.5      29.31       78.5        567       2648       1968       1.27       0.00       0.00      0.000
12:49pm           351          1          5         45         71       74.3       78.5      29.31       78.5        568       2544       1969       1.25       0.00       0.00      0.000
12:50pm            62          1          5         45         70       74.3       78.5      29.31       78.5        568       2648       1969       1.23       0.00       0.00      0.000
12:51pm            74          4          4         45         70       74.3       78.5      29.31       78.5        568       2648       1969       1.21       0.00       0.00      0.000
12:52pm            77          0          5         45         69       74.3       78.4      29.31       78.4        568       2751       1963       1.09       0.00       0.00      0.000
12:53pm            77          1          5         45         70       74.3       78.4      29.31       78.4        568       2646       1963       1.07       0.00       0.00      0.000
12:54pm            68          2          5         45         69       74.3       78.4      29.31       78.4        567       2751       1962       1.05       0.00       0.00      0.000
12:55pm            66          2          5         45         70       74.3       78.4      29.31       78.4        567       2646       1962       1.03       0.00       0.00      0.000
12:56pm            66          2          2         45         69       74.3       78.3      29.31       78.3        568       2750       1957       0.92       0.00       0.00      0.000
12:57pm            68          0          2         45         70       74.3       78.3      29.31       78.3        568       2645       1957       0.90       0.00       0.00      0.000
12:58pm            68          0          2         45         70       74.3       78.3      29.31       78.3        568       2645       1957       0.89       0.00       0.00      0.000
12:59pm            60          2          3         45         70       74.3       78.3      29.31       78.3        568       2645       1957       0.87       0.00       0.00      0.000
1:00pm             22          4          4         45         70       74.3       78.4      29.31       78.4        568       2646       1963       0.96       0.00       0.00      0.000
1:01pm             30          3          4         45         70       74.3       78.4      29.31       78.4        568       2646       1963       0.94       0.00       0.00      0.000
1:02pm             81          3          4         45         70       74.3       78.4      29.31       78.4        568       2646       1963       0.93       0.00       0.00      0.000
1:03pm             81          1          4         45         70       74.3       78.4      29.31       78.4        569       2646       1964       0.91       0.00       0.00      0.000
1:04pm             81          1          4         45         69       74.2       78.4      29.31       78.4        568       2751       1963       0.90       0.00       0.00      0.000
1:05pm             81          0          4         45         70       74.2       78.3      29.31       78.3        569       2645       1958       0.78       0.00       0.00      0.000
1:06pm             81          0          1         45         70       74.2       78.3      29.31       78.3        569       2645       1958       0.77       0.00       0.00      0.000
1:07pm             81          0          1         45         71       74.2       78.3      29.31       78.3        570       2542       1959       0.76       0.00       0.00      0.000
1:08pm            300          3          4         45         70       74.2       78.3      29.31       78.3        568       2645       1957       0.74       0.00       0.00      0.000
1:09pm            346          1          4         45         70       74.2       78.2      29.31       78.2        569       2644       1951       0.63       0.00       0.00      0.000
1:10pm             96          0          5         45         70       74.2       78.1      29.31       78.1        569       2643       1945       0.52       0.00       0.00      0.000
1:11pm             96          0          1         45         71       74.2       78.2      29.31       78.2        571       2541       1954       0.61       0.00       0.00      0.000
1:12pm             96          2          3         46         72       74.2       78.2      29.31       78.2        571       2440       1954       0.60       0.00       0.00      0.000
1:13pm             96          0          3         45         71       74.2       78.3      29.31       78.3        572       2542       1961       0.69       0.00       0.00      0.000
1:14pm             96          1          3         45         71       74.2       78.4      29.31       78.4        572       2543       1967       0.78       0.00       0.00      0.000
1:15pm             96          2          5         45         70       74.2       78.4      29.31       78.4        572       2646       1967       0.77       0.00       0.00      0.000
1:16pm             96          1          2         45         71       74.2       78.4      29.31       78.4        571       2543       1966       0.76       0.00       0.00      0.000
1:17pm             96          0          2         45         71       74.2       78.5      29.31       78.5        571       2544       1973       0.84       0.00       0.00      0.000
1:18pm             96          2          2         45         72       74.2       78.6      29.31       78.6        570       2444       1978       0.93       0.00       0.00      0.000
1:19pm             96          1          7         45         70       74.2       78.7      29.31       78.7        570       2650       1984       1.01       0.00       0.00      0.000
1:20pm             96          0          7         45         72       74.2       78.7      29.31       78.7        571       2445       1985       1.00       0.00       0.00      0.000
1:21pm             96          0          0         45         71       74.2       78.7      29.31       78.7        572       2547       1986       0.98       0.00       0.00      0.000
1:22pm             96          0          0         45         72       74.2       78.8      29.31       78.8        572       2446       1992       1.06       0.00       0.00      0.000
1:23pm             96          0          0         45         72       74.2       78.8      29.31       78.8        572       2446       1992       1.04       0.00       0.00      0.000
1:24pm             96          0          0         45         73       74.2       78.7      29.31       78.7        572       2344       1986       0.93       0.00       0.00      0.000
1:25pm             96          0          0         45         72       74.2       78.7      29.31       78.7        572       2445       1986       0.91       0.00       0.00      0.000
1:26pm             96          1          2         45         71       74.2       78.7      29.31       78.7        572       2547       1987       0.90       0.00       0.00      0.000
1:27pm             96          0          4         45         70       74.2       78.5      29.30       78.5        574       2648       1977       0.68       0.00       0.00      0.000
1:28pm             96          1          4         45         71       74.2       78.5      29.30       78.5        576       2544       1979       0.67       0.00       0.00      0.000
1:29pm             96          0          4         45         72       74.3       78.5      29.30       78.5        578       2443       1982       0.66       0.00       0.00      0.000
1:30pm             96          0          4         45         73       74.3       78.5      29.30       78.5        579       2342       1983       0.65       0.00       0.00      0.000
1:31pm             96          0          0         45         73       74.3       78.5      29.30       78.5        579       2342       1983       0.64       0.00       0.00      0.000
1:32pm             96          1          1         45         74       74.3       78.5      29.30       78.5        578       2243       1982       0.63       0.00       0.00      0.000
1:33pm             96          0          1         45         73       74.3       78.5      29.30       78.5        578       2342       1982       0.62       0.00       0.00      0.000
1:34pm             96          3          3         45         73       74.3       78.6      29.30       78.6        578       2343       1988       0.71       0.00       0.00      0.000
1:35pm             96          0          3         45         73       74.3       78.5      29.30       78.5        578       2342       1982       0.60       0.00       0.00      0.000
1:36pm             96          2          3         45         74       74.3       78.4      29.30       78.4        580       2242       1978       0.49       0.00       0.00      0.000
1:37pm             96          1          4         45         72       74.3       78.4      29.30       78.4        580       2442       1978       0.48       0.00       0.00      0.000
1:38pm             96          1          4         45         72       74.3       78.2      29.30       78.2        580       2440       1965       0.27       0.00       0.00      0.000
1:39pm             96          2          4         45         72       74.3       78.1      29.30       78.1        579       2439       1958       0.17       0.00       0.00      0.000
1:40pm             96          0          4         45         71       74.3       78.0      29.30       78.0        580       2539       1952       0.07       0.00       0.00      0.000
1:41pm             96          2          3         45         72       74.3       78.0      29.30       78.0        580       2438       1952       0.06       0.00       0.00      0.000
1:42pm             96          1          3         45         72       74.3       78.0      29.30       78.0        580       2438       1952       0.06       0.00       0.00      0.000
1:43pm             96          1          3         45         72       74.2       78.0      29.30       78.0        580       2438       1952       0.06       0.00       0.00      0.000
1:44pm             96          3          3         45         72       74.2       78.0      29.30       78.0        581       2438       1954       0.06       0.00       0.00      0.000
1:45pm             96          0          3         45         72       74.2       78.0      29.30       78.0        581       2438       1954       0.06       0.00       0.00      0.000
1:46pm             96          0          0         45         73       74.2       78.1      29.30       78.1        581       2338       1960       0.16       0.00       0.00      0.000
1:47pm             96          0          0         45         74       74.2       78.2      29.30       78.2        581       2240       1966       0.26       0.00       0.00      0.000
1:48pm             96          0          0         45         74       74.2       78.4      29.30       78.4        580       2242       1978       0.45       0.00       0.00      0.000
1:49pm             96          3          3         45         72       74.2       78.5      29.30       78.5        580       2443       1984       0.54       0.00       0.00      0.000
1:50pm             96          0          3         45         75       74.2       78.7      29.30       78.7        582       2146       1999       0.73       0.00       0.00      0.000
1:51pm             96          1          1         45         73       74.2       78.7      29.30       78.7        582       2344       1999       0.72       0.00       0.00      0.000
1:52pm             96          3          4         45         73       74.2       78.8      29.30       78.8        581       2345       2004       0.81       0.00       0.00      0.000
1:53pm             96          2          4         45         71       74.0       78.8      29.30       78.8        581       2548       2004       0.79       0.00       0.00      0.000
1:54pm             96          1          4         45         70       74.0       78.8      29.30       78.8        582       2651       2005       0.78       0.00       0.00      0.000
1:55pm             96          1          4         45         73       74.0       78.9      29.30       78.9        582       2346       2011       0.86       0.00       0.00      0.000
1:56pm             96          2          3         45         74       74.0       79.0      29.30       79.0        582       2247       2017       0.95       0.00       0.00      0.000
1:57pm             96          2          3         45         71       74.0       79.0      29.30       79.0        583       2550       2018       0.93       0.00       0.00      0.000
1:58pm            177          2          3         45         72       74.0       79.0      29.30       79.0        583       2448       2018       0.92       0.00       0.00      0.000
1:59pm            176          1          3         45         71       74.0       79.1      29.30       79.1        583       2551       2025       1.00       0.00       0.00      0.000
2:00pm            141          2          3         45         72       74.0       79.2      29.30       79.2        583       2450       2031       1.08       0.00       0.00      0.000
2:01pm             92          4          5         45         71       74.0       79.3      29.30       79.3        583       2553       2037       1.17       0.00       0.00      0.000
2:02pm             92          1          6         46         69       74.0       79.4      29.29       79.4        584       2762       2045       1.25       0.00       0.00      0.000
2:03pm             96          2          6         45         69       74.0       79.4      29.30       79.4        583       2762       2043       1.23       0.00       0.00      0.000
2:04pm             96          1          6         45         70       74.0       79.5      29.30       79.5        583       2658       2050       1.30       0.00       0.00      0.000
2:05pm             96          1          6         45         69       74.0       79.6      29.30       79.6        583       2764       2056       1.38       0.00       0.00      0.000
2:06pm             96          1          1         45         70       74.0       79.8      29.30       79.8        583       2662       2068       1.56       0.00       0.00      0.000
2:07pm             96          1          2         45         70       74.0       79.8      29.30       79.8        583       2662       2068       1.53       0.00       0.00      0.000
2:08pm             96          2          2         45         69       74.0       79.8      29.30       79.8        583       2767       2068       1.51       0.00       0.00      0.000
2:09pm             96          2          5         45         69       74.0       79.9      29.30       79.9        583       2768       2075       1.58       0.00       0.00      0.000
2:10pm             96          0          5         45         70       74.0       79.8      29.30       79.8        583       2662       2068       1.46       0.00       0.00      0.000
2:11pm             96          1          3         45         70       74.0       79.7      29.30       79.7        583       2661       2062       1.33       0.00       0.00      0.000
2:12pm             96          1          3         45         70       74.0       79.6      29.30       79.6        583       2660       2056       1.21       0.00       0.00      0.000
2:13pm             96          4          4         45         70       74.0       79.6      29.30       79.6        583       2660       2056       1.19       0.00       0.00      0.000
2:14pm             96          3          4         45         70       74.0       79.4      29.30       79.4        583       2657       2043       0.97       0.00       0.00      0.000
2:15pm             96          4          5         45         70       74.0       79.3      29.30       79.3        583       2656       2037       0.86       0.00       0.00      0.000
2:16pm             96          6          7         45         70       74.0       79.1      29.30       79.1        583       2654       2025       0.64       0.00       0.00      0.000
2:17pm             96          3          7         45         70       74.0       78.8      29.30       78.8        583       2651       2006       0.34       0.00       0.00      0.000
2:18pm             96          2          7         45         70       74.0       78.5      29.29       78.5        584       2648       1988       0.03       0.00       0.00      0.000
2:19pm             96          0          7         45         71       74.0       78.4      29.29       78.4        584       2543       1982      -0.07       0.00       0.00      0.000
2:20pm             96          0          7         45         73       74.0       78.4      29.29       78.4        584       2341       1983      -0.07       0.00       0.00      0.000
2:21pm             96          0          3         45         74       74.2       78.3      29.29       78.3        584       2241       1977      -0.16       0.00       0.00      0.000
2:22pm             96          1          4         45         73       74.2       78.4      29.29       78.4        584       2341       1982      -0.06       0.00       0.00      0.000
2:23pm             96          0          4         45         72       74.2       78.4      29.29       78.4        584       2442       1982      -0.06       0.00       0.00      0.000
2:24pm             96          0          4         45         72       74.2       78.5      29.29       78.5        584       2443       1988       0.04       0.00       0.00      0.000
2:25pm             96          0          4         45         72       74.2       78.6      29.29       78.6        584       2444       1995       0.14       0.00       0.00      0.000
2:26pm             96          1          2         45         72       74.2       78.7      29.29       78.7        584       2445       2001       0.23       0.00       0.00      0.000
2:27pm             96          0          2         45         73       74.2       78.7      29.29       78.7        584       2344       2001       0.23       0.00       0.00      0.000
2:28pm             96          1          2         45         72       74.2       78.9      29.29       78.9        584       2447       2013       0.42       0.00       0.00      0.000
2:29pm             96          1          3         45         71       74.2       79.0      29.29       79.0        584       2550       2020       0.52       0.00       0.00      0.000
2:30pm             96          0          3         45         71       74.2       79.0      29.29       79.0        584       2550       2020       0.51       0.00       0.00      0.000
2:31pm             96          1          3         45         70       74.2       79.1      29.29       79.1        584       2654       2026       0.60       0.00       0.00      0.000
2:32pm             96          0          3         45         71       74.2       79.1      29.30       79.1        583       2551       2025       0.59       0.00       0.00      0.000
2:33pm             96          0          3         45         71       74.0       79.1      29.29       79.1        584       2551       2026       0.58       0.00       0.00      0.000
2:34pm             96          0          3         45         71       74.0       79.1      29.30       79.1        583       2551       2025       0.57       0.00       0.00      0.000
2:35pm             96          0          3         45         71       74.0       79.0      29.29       79.0        584       2550       2020       0.46       0.00       0.00      0.000
2:36pm             96          3          3         45         70       74.0       79.1      29.29       79.1        584       2654       2027       0.55       0.00       0.00      0.000
2:37pm             96          1          5         45         70       74.0       79.0      29.29       79.0        584       2653       2021       0.44       0.00       0.00      0.000
2:38pm             96          0          5         45         70       74.0       78.9      29.29       78.9        585       2652       2016       0.34       0.00       0.00      0.000
2:39pm             96          0          5         45         71       74.0       78.9      29.29       78.9        586       2549       2017       0.33       0.00       0.00      0.000
2:40pm             96          0          5         45         71       74.0       78.8      29.29       78.8        585       2548       2009       0.23       0.00       0.00      0.000
2:41pm             96          1          1         45         71       74.0       78.7      29.29       78.7        585       2547       2003       0.13       0.00       0.00      0.000
2:42pm             96          0          1         45         71       74.0       78.7      29.29       78.7        585       2547       2003       0.12       0.00       0.00      0.000
2:43pm             96          0          1         45         72       74.0       78.7      29.29       78.7        585       2445       2003       0.12       0.00       0.00      0.000
2:44pm             96          0          1         45         72       74.0       78.7      29.29       78.7        585       2445       2003       0.12       0.00       0.00      0.000
2:45pm             96          0          1         45         73       73.8       78.6      29.29       78.6        585       2343       1997       0.02       0.00       0.00      0.000
2:46pm             96          0          0         45         73       73.8       78.5      29.29       78.5        585       2342       1991      -0.08       0.00       0.00      0.000
2:47pm             96          0          0         45         73       73.8       78.5      29.29       78.5        584       2342       1989      -0.08       0.00       0.00      0.000
2:48pm             96          0          0         45         73       73.8       78.4      29.29       78.4        584       2341       1982      -0.18       0.00       0.00      0.000
2:49pm             96          0          0         45         72       73.8       78.4      29.29       78.4        584       2442       1982      -0.17       0.00       0.00      0.000
2:50pm             96          0          0         45         74       73.8       78.4      29.29       78.4        584       2242       1982      -0.17       0.00       0.00      0.000
2:51pm            354          1          3         45         74       73.8       78.4      29.29       78.4        584       2242       1983      -0.17       0.00       0.00      0.000
2:52pm            354          0          3         45         72       73.8       78.4      29.29       78.4        585       2442       1984      -0.17       0.00       0.00      0.000
2:53pm             76          3          4         45         71       73.8       78.3      29.29       78.3        586       2542       1979      -0.26       0.00       0.00      0.000
2:54pm             76          0          4         45         72       73.8       78.3      29.29       78.3        586       2441       1979      -0.26       0.00       0.00      0.000

Data provided from:  Mark Hofmann's Bel Air, MD Weather Station